GEFSNE_prec_meanprecacc_006.txt.gz
Total_Precipitation_Accumulation
0.04 0.05 0.05 0.06 0.08 0.13 0.16 0.12 0.07 0.05 0.06 0.05 0.03 0.01 0.01 0.00 0.00 0.00 0.00 0.00 0.00 0.00 0.00 0.00 0.00 0.00 0.00 0.00 0.00 0.00 0.00 0.00 0.00 0.00 0.00 0.00 0.00 0.00
0.03 0.04 0.04 0.06 0.07 0.09 0.12 0.12 0.09 0.06 0.06 0.05 0.08 0.06 0.05 0.04 0.03 0.01 0.00 0.00 0.00 0.00 0.00 0.00 0.00 0.00 0.00 0.00 0.00 0.00 0.00 0.00 0.00 0.00 0.00 0.00 0.00 0.00
0.00 0.01 0.01 0.02 0.05 0.07 0.09 0.11 0.10 0.08 0.05 0.04 0.05 0.06 0.04 0.05 0.05 0.04 0.03 0.01 0.00 0.00 0.00 0.00 0.00 0.00 0.00 0.00 0.00 0.00 0.00 0.00 0.00 0.00 0.00 0.00 0.00 0.00
0.00 0.00 0.00 0.00 0.01 0.02 0.04 0.07 0.11 0.10 0.07 0.04 0.03 0.04 0.05 0.04 0.04 0.05 0.07 0.07 0.03 0.03 0.02 0.00 0.00 0.00 0.00 0.00 0.00 0.00 0.00 0.00 0.00 0.00 0.00 0.00 0.00 0.00
0.00 0.00 0.00 0.00 0.01 0.01 0.03 0.05 0.08 0.09 0.09 0.06 0.04 0.04 0.04 0.03 0.02 0.02 0.03 0.05 0.06 0.07 0.05 0.02 0.00 0.00 0.00 0.00 0.00 0.00 0.00 0.00 0.00 0.00 0.00 0.00 0.00 0.00
0.00 0.00 0.00 0.01 0.02 0.03 0.05 0.09 0.12 0.14 0.13 0.09 0.07 0.06 0.05 0.04 0.03 0.03 0.02 0.01 0.03 0.04 0.03 0.02 0.01 0.00 0.00 0.00 0.00 0.00 0.00 0.00 0.00 0.00 0.00 0.00 0.00 0.00
0.00 0.00 0.00 0.00 0.01 0.02 0.02 0.06 0.07 0.12 0.15 0.17 0.18 0.16 0.12 0.07 0.05 0.04 0.03 0.03 0.04 0.02 0.02 0.02 0.01 0.00 0.00 0.00 0.00 0.00 0.00 0.00 0.00 0.00 0.00 0.00 0.00 0.00
0.04 0.01 0.00 0.00 0.00 0.00 0.00 0.01 0.02 0.04 0.06 0.08 0.13 0.16 0.15 0.12 0.09 0.06 0.03 0.02 0.03 0.03 0.03 0.03 0.02 0.01 0.00 0.00 0.00 0.00 0.00 0.00 0.00 0.00 0.00 0.00 0.00 0.00
0.10 0.05 0.03 0.00 0.00 0.00 0.00 0.00 0.01 0.01 0.01 0.03 0.04 0.06 0.05 0.06 0.08 0.06 0.04 0.02 0.02 0.02 0.02 0.02 0.02 0.01 0.01 0.00 0.00 0.00 0.00 0.00 0.00 0.00 0.00 0.00 0.00 0.00
0.12 0.11 0.11 0.04 0.01 0.00 0.00 0.00 0.00 0.01 0.01 0.01 0.03 0.03 0.03 0.04 0.06 0.07 0.06 0.04 0.03 0.02 0.01 0.02 0.02 0.02 0.01 0.01 0.00 0.00 0.00 0.00 0.00 0.00 0.00 0.00 0.00 0.00
0.06 0.09 0.10 0.08 0.05 0.01 0.00 0.01 0.01 0.01 0.00 0.00 0.02 0.03 0.02 0.02 0.06 0.11 0.13 0.13 0.10 0.08 0.06 0.04 0.04 0.03 0.03 0.02 0.01 0.00 0.00 0.00 0.00 0.00 0.00 0.00 0.00 0.00
0.01 0.03 0.07 0.07 0.05 0.01 0.01 0.04 0.08 0.03 0.01 0.01 0.02 0.03 0.06 0.09 0.16 0.15 0.15 0.18 0.20 0.23 0.24 0.19 0.15 0.11 0.09 0.05 0.02 0.00 0.00 0.00 0.00 0.00 0.00 0.00 0.00 0.00
0.00 0.00 0.01 0.01 0.01 0.01 0.01 0.04 0.08 0.03 0.01 0.02 0.03 0.02 0.04 0.10 0.13 0.10 0.10 0.18 0.23 0.28 0.36 0.39 0.36 0.31 0.24 0.17 0.08 0.03 0.01 0.00 0.00 0.00 0.00 0.00 0.00 0.00
0.00 0.00 0.00 0.00 0.00 0.01 0.01 0.03 0.04 0.03 0.03 0.04 0.04 0.02 0.01 0.04 0.04 0.04 0.04 0.06 0.09 0.14 0.21 0.20 0.18 0.16 0.14 0.10 0.07 0.05 0.02 0.01 0.00 0.00 0.00 0.00 0.00 0.00
0.01 0.01 0.00 0.00 0.00 0.00 0.01 0.02 0.04 0.04 0.04 0.06 0.06 0.03 0.01 0.01 0.02 0.03 0.04 0.05 0.05 0.05 0.04 0.04 0.03 0.02 0.02 0.01 0.01 0.01 0.01 0.01 0.00 0.00 0.00 0.00 0.00 0.00
0.01 0.01 0.01 0.00 0.00 0.01 0.02 0.03 0.04 0.05 0.05 0.05 0.03 0.01 0.01 0.01 0.02 0.02 0.02 0.03 0.03 0.02 0.01 0.01 0.01 0.01 0.01 0.01 0.01 0.00 0.00 0.00 0.00 0.00 0.00 0.00 0.00 0.00
0.01 0.01 0.02 0.02 0.02 0.02 0.04 0.06 0.05 0.04 0.05 0.04 0.02 0.02 0.01 0.01 0.01 0.00 0.00 0.01 0.02 0.02 0.02 0.01 0.00 0.00 0.00 0.01 0.01 0.01 0.01 0.01 0.01 0.01 0.01 0.00 0.00 0.00
0.02 0.04 0.08 0.11 0.09 0.08 0.07 0.07 0.08 0.07 0.06 0.04 0.03 0.03 0.02 0.02 0.02 0.01 0.01 0.02 0.04 0.03 0.01 0.00 0.00 0.00 0.00 0.01 0.01 0.01 0.02 0.02 0.03 0.03 0.01 0.01 0.00 0.01
0.04 0.12 0.27 0.27 0.18 0.16 0.15 0.13 0.10 0.05 0.03 0.03 0.02 0.01 0.01 0.01 0.01 0.01 0.01 0.01 0.01 0.01 0.01 0.01 0.02 0.02 0.02 0.02 0.02 0.01 0.03 0.05 0.04 0.03 0.02 0.01 0.01 0.01
0.03 0.07 0.17 0.17 0.17 0.16 0.12 0.09 0.05 0.03 0.02 0.02 0.01 0.00 0.00 0.00 0.00 0.00 0.00 0.00 0.00 0.01 0.01 0.03 0.03 0.02 0.03 0.03 0.03 0.03 0.02 0.03 0.03 0.03 0.02 0.01 0.01 0.00
0.04 0.06 0.08 0.10 0.09 0.06 0.04 0.03 0.02 0.01 0.01 0.00 0.00 0.00 0.01 0.01 0.00 0.00 0.00 0.00 0.00 0.01 0.01 0.02 0.01 0.01 0.01 0.02 0.03 0.03 0.03 0.05 0.03 0.01 0.01 0.01 0.01 0.01
0.03 0.04 0.04 0.04 0.03 0.01 0.01 0.01 0.00 0.00 0.00 0.00 0.00 0.00 0.01 0.00 0.00 0.00 0.00 0.00 0.01 0.01 0.01 0.01 0.01 0.01 0.01 0.03 0.04 0.03 0.03 0.03 0.05 0.06 0.05 0.03 0.02 0.01
0.01 0.01 0.00 0.00 0.00 0.00 0.00 0.00 0.00 0.00 0.00 0.00 0.00 0.00 0.01 0.01 0.01 0.00 0.00 0.00 0.00 0.00 0.00 0.00 0.00 0.00 0.01 0.01 0.02 0.02 0.03 0.03 0.04 0.05 0.06 0.05 0.03 0.01

GEFSNE_prec_meanprecacc_012.txt.gz
Total_Precipitation_Accumulation
0.05 0.06 0.09 0.10 0.13 0.19 0.27 0.25 0.20 0.18 0.20 0.16 0.10 0.03 0.02 0.01 0.01 0.00 0.00 0.00 0.00 0.00 0.00 0.00 0.00 0.00 0.00 0.00 0.00 0.00 0.00 0.00 0.00 0.00 0.00 0.00 0.00 0.00
0.05 0.06 0.08 0.11 0.13 0.17 0.23 0.26 0.24 0.21 0.20 0.19 0.17 0.12 0.11 0.08 0.07 0.03 0.01 0.00 0.00 0.00 0.00 0.00 0.00 0.00 0.00 0.00 0.00 0.00 0.00 0.00 0.00 0.00 0.00 0.00 0.00 0.00
0.03 0.03 0.04 0.05 0.08 0.11 0.16 0.20 0.23 0.23 0.16 0.19 0.16 0.14 0.18 0.16 0.15 0.08 0.04 0.02 0.01 0.01 0.00 0.00 0.00 0.00 0.00 0.00 0.00 0.00 0.00 0.00 0.00 0.00 0.00 0.00 0.00 0.00
0.02 0.01 0.01 0.01 0.02 0.03 0.07 0.12 0.19 0.21 0.17 0.14 0.15 0.14 0.16 0.18 0.19 0.17 0.13 0.10 0.06 0.08 0.08 0.02 0.00 0.00 0.00 0.00 0.00 0.00 0.00 0.00 0.00 0.00 0.00 0.00 0.00 0.00
0.01 0.01 0.00 0.00 0.02 0.03 0.06 0.10 0.15 0.18 0.21 0.16 0.16 0.17 0.15 0.14 0.16 0.15 0.14 0.13 0.11 0.11 0.15 0.08 0.02 0.01 0.00 0.00 0.00 0.00 0.00 0.00 0.00 0.00 0.00 0.00 0.00 0.00
0.03 0.01 0.00 0.01 0.04 0.07 0.10 0.19 0.24 0.30 0.30 0.24 0.22 0.22 0.20 0.18 0.16 0.17 0.19 0.17 0.13 0.10 0.09 0.09 0.05 0.02 0.01 0.01 0.00 0.00 0.00 0.00 0.00 0.00 0.00 0.00 0.00 0.00
0.04 0.02 0.01 0.01 0.01 0.03 0.04 0.09 0.15 0.25 0.30 0.30 0.29 0.30 0.28 0.21 0.17 0.19 0.19 0.21 0.17 0.11 0.09 0.08 0.07 0.04 0.03 0.02 0.01 0.01 0.01 0.00 0.00 0.00 0.00 0.00 0.00 0.00
0.08 0.04 0.03 0.01 0.01 0.00 0.00 0.01 0.03 0.07 0.13 0.18 0.22 0.26 0.31 0.32 0.30 0.26 0.20 0.16 0.13 0.13 0.12 0.15 0.14 0.11 0.10 0.07 0.08 0.11 0.08 0.03 0.01 0.00 0.00 0.00 0.00 0.00
0.14 0.10 0.09 0.04 0.02 0.01 0.02 0.02 0.03 0.02 0.02 0.06 0.13 0.20 0.22 0.24 0.24 0.23 0.19 0.15 0.12 0.10 0.06 0.07 0.11 0.12 0.15 0.16 0.12 0.11 0.12 0.07 0.02 0.01 0.00 0.00 0.00 0.00
0.17 0.16 0.17 0.10 0.06 0.05 0.03 0.04 0.05 0.06 0.03 0.02 0.07 0.12 0.11 0.14 0.19 0.21 0.19 0.12 0.09 0.05 0.03 0.03 0.07 0.09 0.11 0.10 0.07 0.05 0.04 0.03 0.01 0.00 0.00 0.00 0.00 0.00
0.14 0.17 0.20 0.21 0.16 0.09 0.03 0.05 0.08 0.07 0.04 0.04 0.03 0.04 0.03 0.03 0.08 0.15 0.20 0.19 0.14 0.11 0.08 0.06 0.07 0.07 0.07 0.08 0.06 0.05 0.03 0.02 0.01 0.01 0.00 0.00 0.00 0.00
0.05 0.09 0.15 0.14 0.11 0.07 0.04 0.14 0.24 0.12 0.05 0.09 0.09 0.08 0.09 0.11 0.17 0.18 0.21 0.24 0.25 0.27 0.25 0.21 0.18 0.15 0.15 0.11 0.06 0.04 0.03 0.03 0.02 0.02 0.01 0.01 0.01 0.00
0.00 0.02 0.04 0.02 0.02 0.03 0.03 0.10 0.18 0.07 0.05 0.10 0.12 0.08 0.08 0.12 0.15 0.12 0.13 0.21 0.27 0.32 0.38 0.41 0.38 0.35 0.29 0.23 0.14 0.07 0.03 0.02 0.01 0.01 0.01 0.02 0.01 0.01
0.01 0.01 0.01 0.00 0.01 0.01 0.02 0.05 0.07 0.05 0.08 0.13 0.12 0.08 0.05 0.07 0.06 0.06 0.08 0.12 0.16 0.21 0.24 0.21 0.20 0.19 0.17 0.13 0.10 0.07 0.03 0.02 0.01 0.01 0.01 0.02 0.02 0.02
0.02 0.01 0.01 0.00 0.00 0.00 0.01 0.02 0.05 0.07 0.12 0.15 0.15 0.09 0.06 0.06 0.06 0.08 0.10 0.13 0.12 0.09 0.07 0.05 0.05 0.05 0.03 0.03 0.03 0.03 0.03 0.02 0.01 0.01 0.01 0.01 0.01 0.02
0.03 0.03 0.01 0.01 0.00 0.01 0.03 0.05 0.07 0.11 0.15 0.16 0.14 0.09 0.07 0.08 0.08 0.08 0.08 0.08 0.08 0.06 0.04 0.03 0.03 0.03 0.04 0.03 0.03 0.03 0.04 0.03 0.02 0.02 0.02 0.02 0.02 0.02
0.03 0.05 0.05 0.05 0.05 0.06 0.11 0.16 0.15 0.14 0.17 0.18 0.15 0.12 0.10 0.10 0.07 0.03 0.02 0.02 0.04 0.06 0.06 0.04 0.03 0.03 0.03 0.03 0.04 0.05 0.06 0.05 0.04 0.06 0.05 0.03 0.04 0.05
0.05 0.09 0.14 0.17 0.17 0.19 0.21 0.22 0.24 0.22 0.21 0.19 0.15 0.12 0.09 0.09 0.06 0.04 0.03 0.04 0.06 0.05 0.03 0.02 0.01 0.01 0.02 0.04 0.03 0.04 0.07 0.07 0.08 0.09 0.06 0.03 0.03 0.06
0.06 0.15 0.32 0.35 0.29 0.31 0.30 0.27 0.22 0.16 0.14 0.11 0.08 0.05 0.03 0.03 0.03 0.03 0.02 0.02 0.02 0.02 0.02 0.03 0.04 0.04 0.04 0.04 0.06 0.03 0.06 0.09 0.07 0.06 0.05 0.04 0.03 0.04
0.04 0.10 0.22 0.24 0.25 0.26 0.23 0.17 0.10 0.06 0.05 0.03 0.01 0.01 0.01 0.01 0.01 0.01 0.01 0.01 0.01 0.01 0.02 0.04 0.04 0.03 0.04 0.04 0.06 0.07 0.04 0.04 0.04 0.03 0.03 0.02 0.01 0.02
0.06 0.10 0.13 0.14 0.13 0.11 0.09 0.06 0.03 0.02 0.01 0.01 0.01 0.01 0.01 0.01 0.01 0.01 0.01 0.00 0.01 0.01 0.02 0.03 0.02 0.01 0.02 0.04 0.07 0.07 0.05 0.05 0.04 0.02 0.01 0.01 0.01 0.01
0.03 0.04 0.05 0.04 0.03 0.02 0.02 0.01 0.01 0.00 0.00 0.00 0.01 0.01 0.01 0.01 0.01 0.01 0.01 0.01 0.01 0.01 0.01 0.01 0.01 0.02 0.03 0.04 0.06 0.06 0.05 0.04 0.05 0.07 0.05 0.03 0.02 0.01
0.01 0.01 0.00 0.00 0.00 0.00 0.00 0.00 0.00 0.00 0.00 0.00 0.00 0.01 0.02 0.02 0.01 0.01 0.01 0.01 0.01 0.01 0.01 0.00 0.00 0.01 0.01 0.02 0.04 0.04 0.04 0.04 0.05 0.07 0.07 0.06 0.03 0.01

GEFSNE_prec_meanprecacc_018.txt.gz
Total_Precipitation_Accumulation
0.16 0.13 0.13 0.13 0.15 0.21 0.29 0.26 0.20 0.18 0.20 0.16 0.11 0.06 0.07 0.05 0.03 0.01 0.00 0.01 0.00 0.00 0.00 0.00 0.00 0.00 0.00 0.00 0.00 0.00 0.00 0.00 0.00 0.00 0.00 0.00 0.00 0.00
0.16 0.13 0.12 0.13 0.15 0.18 0.24 0.28 0.26 0.22 0.21 0.20 0.17 0.13 0.15 0.13 0.13 0.07 0.03 0.01 0.00 0.00 0.00 0.00 0.00 0.00 0.00 0.00 0.00 0.00 0.00 0.00 0.00 0.00 0.00 0.00 0.00 0.00
0.11 0.09 0.07 0.07 0.10 0.12 0.16 0.21 0.23 0.24 0.17 0.20 0.17 0.15 0.21 0.22 0.22 0.16 0.11 0.07 0.06 0.02 0.01 0.00 0.00 0.00 0.00 0.00 0.00 0.00 0.00 0.00 0.00 0.00 0.00 0.00 0.00 0.00
0.09 0.07 0.05 0.05 0.05 0.04 0.07 0.12 0.19 0.22 0.17 0.15 0.16 0.15 0.18 0.22 0.26 0.25 0.21 0.17 0.13 0.14 0.12 0.05 0.02 0.01 0.01 0.00 0.00 0.00 0.00 0.00 0.00 0.00 0.00 0.00 0.00 0.00
0.09 0.07 0.04 0.03 0.03 0.04 0.06 0.10 0.15 0.18 0.21 0.16 0.16 0.18 0.16 0.16 0.20 0.20 0.22 0.24 0.23 0.24 0.29 0.19 0.11 0.07 0.05 0.03 0.02 0.02 0.01 0.00 0.00 0.00 0.00 0.00 0.00 0.00
0.12 0.08 0.04 0.04 0.05 0.07 0.11 0.19 0.24 0.30 0.30 0.25 0.23 0.24 0.22 0.19 0.17 0.21 0.26 0.29 0.30 0.26 0.26 0.27 0.23 0.15 0.11 0.10 0.10 0.08 0.05 0.04 0.02 0.01 0.00 0.00 0.00 0.00
0.12 0.12 0.08 0.05 0.03 0.03 0.04 0.10 0.15 0.25 0.31 0.31 0.31 0.32 0.29 0.23 0.19 0.24 0.26 0.32 0.32 0.28 0.25 0.24 0.25 0.21 0.20 0.17 0.15 0.14 0.13 0.11 0.08 0.04 0.01 0.00 0.00 0.00
0.16 0.15 0.13 0.07 0.03 0.02 0.01 0.01 0.03 0.07 0.14 0.18 0.22 0.27 0.32 0.34 0.33 0.32 0.32 0.31 0.33 0.35 0.31 0.34 0.32 0.27 0.26 0.20 0.17 0.21 0.22 0.18 0.14 0.09 0.04 0.02 0.01 0.01
0.19 0.17 0.18 0.13 0.09 0.07 0.06 0.04 0.04 0.04 0.03 0.06 0.13 0.20 0.23 0.25 0.27 0.30 0.30 0.30 0.32 0.33 0.24 0.21 0.21 0.18 0.21 0.20 0.18 0.21 0.25 0.22 0.18 0.14 0.10 0.08 0.05 0.04
0.20 0.20 0.24 0.20 0.15 0.13 0.11 0.11 0.10 0.10 0.06 0.03 0.07 0.12 0.11 0.15 0.19 0.23 0.22 0.16 0.14 0.10 0.08 0.09 0.11 0.12 0.13 0.12 0.12 0.11 0.13 0.14 0.13 0.12 0.11 0.10 0.08 0.06
0.16 0.19 0.24 0.27 0.24 0.17 0.09 0.11 0.15 0.14 0.11 0.08 0.06 0.05 0.03 0.03 0.08 0.15 0.20 0.19 0.14 0.13 0.10 0.07 0.08 0.08 0.08 0.09 0.08 0.07 0.07 0.07 0.07 0.07 0.07 0.08 0.07 0.07
0.05 0.10 0.17 0.16 0.16 0.12 0.08 0.18 0.28 0.16 0.12 0.16 0.15 0.12 0.11 0.12 0.17 0.18 0.21 0.24 0.25 0.27 0.26 0.21 0.18 0.15 0.15 0.12 0.07 0.05 0.05 0.06 0.06 0.05 0.05 0.05 0.06 0.05
0.01 0.02 0.05 0.03 0.03 0.05 0.06 0.13 0.21 0.10 0.10 0.17 0.18 0.13 0.14 0.15 0.16 0.13 0.13 0.21 0.27 0.32 0.38 0.41 0.38 0.35 0.29 0.23 0.14 0.07 0.03 0.02 0.01 0.02 0.02 0.02 0.02 0.02
0.01 0.01 0.01 0.01 0.01 0.01 0.02 0.05 0.09 0.07 0.11 0.19 0.20 0.16 0.12 0.13 0.09 0.07 0.08 0.12 0.16 0.21 0.24 0.21 0.20 0.19 0.17 0.13 0.10 0.07 0.03 0.02 0.01 0.01 0.01 0.02 0.02 0.02
0.02 0.01 0.01 0.00 0.00 0.00 0.01 0.03 0.05 0.08 0.14 0.19 0.21 0.16 0.12 0.11 0.09 0.09 0.11 0.13 0.12 0.09 0.07 0.05 0.05 0.05 0.03 0.03 0.03 0.03 0.03 0.02 0.01 0.01 0.01 0.01 0.01 0.02
0.03 0.03 0.02 0.01 0.01 0.02 0.04 0.06 0.08 0.13 0.18 0.21 0.21 0.15 0.10 0.10 0.10 0.08 0.08 0.08 0.08 0.06 0.04 0.03 0.04 0.04 0.04 0.04 0.03 0.03 0.04 0.04 0.02 0.02 0.02 0.02 0.02 0.03
0.03 0.05 0.07 0.06 0.06 0.08 0.14 0.19 0.18 0.17 0.20 0.22 0.21 0.16 0.13 0.12 0.07 0.03 0.02 0.02 0.04 0.06 0.06 0.04 0.03 0.03 0.03 0.03 0.04 0.05 0.06 0.05 0.04 0.06 0.05 0.04 0.04 0.06
0.07 0.10 0.15 0.19 0.20 0.23 0.25 0.25 0.27 0.25 0.24 0.22 0.18 0.13 0.10 0.09 0.06 0.04 0.03 0.04 0.06 0.05 0.03 0.02 0.01 0.01 0.02 0.04 0.03 0.04 0.07 0.07 0.08 0.09 0.06 0.04 0.04 0.07
0.07 0.16 0.34 0.38 0.32 0.34 0.34 0.30 0.23 0.18 0.16 0.12 0.08 0.05 0.03 0.03 0.03 0.03 0.02 0.02 0.02 0.02 0.02 0.03 0.04 0.04 0.04 0.05 0.06 0.03 0.06 0.09 0.07 0.06 0.05 0.04 0.04 0.04
0.05 0.11 0.23 0.25 0.27 0.28 0.24 0.18 0.11 0.07 0.05 0.03 0.01 0.01 0.01 0.01 0.01 0.01 0.01 0.01 0.01 0.01 0.02 0.04 0.04 0.03 0.04 0.05 0.07 0.08 0.04 0.04 0.04 0.03 0.03 0.02 0.02 0.02
0.06 0.10 0.13 0.14 0.14 0.11 0.09 0.07 0.03 0.02 0.01 0.01 0.01 0.01 0.01 0.01 0.01 0.01 0.01 0.00 0.01 0.01 0.02 0.03 0.02 0.01 0.02 0.04 0.07 0.08 0.05 0.05 0.04 0.02 0.01 0.01 0.01 0.01
0.03 0.04 0.05 0.04 0.03 0.02 0.02 0.01 0.01 0.00 0.00 0.00 0.01 0.01 0.01 0.01 0.01 0.01 0.01 0.01 0.01 0.01 0.01 0.01 0.01 0.02 0.03 0.04 0.06 0.06 0.05 0.04 0.05 0.07 0.05 0.03 0.02 0.01
0.01 0.01 0.00 0.00 0.00 0.00 0.00 0.00 0.00 0.00 0.00 0.00 0.00 0.01 0.02 0.02 0.01 0.01 0.01 0.01 0.01 0.01 0.01 0.00 0.00 0.01 0.01 0.02 0.04 0.04 0.04 0.04 0.05 0.07 0.07 0.06 0.03 0.01

GEFSNE_prec_meanprecacc_024.txt.gz
Total_Precipitation_Accumulation
0.39 0.31 0.27 0.24 0.24 0.27 0.32 0.28 0.21 0.18 0.20 0.16 0.11 0.06 0.07 0.05 0.04 0.01 0.01 0.04 0.07 0.04 0.03 0.01 0.01 0.00 0.00 0.01 0.02 0.02 0.02 0.02 0.01 0.00 0.00 0.00 0.00 0.00
0.39 0.30 0.25 0.22 0.23 0.24 0.27 0.29 0.26 0.22 0.21 0.20 0.17 0.13 0.15 0.13 0.13 0.07 0.04 0.03 0.05 0.05 0.03 0.02 0.01 0.00 0.00 0.00 0.00 0.01 0.01 0.01 0.01 0.00 0.00 0.00 0.00 0.00
0.38 0.28 0.21 0.16 0.16 0.16 0.19 0.22 0.24 0.24 0.17 0.20 0.17 0.15 0.21 0.22 0.22 0.16 0.11 0.07 0.06 0.05 0.03 0.01 0.01 0.00 0.00 0.00 0.00 0.00 0.00 0.00 0.00 0.00 0.00 0.00 0.00 0.00
0.28 0.22 0.18 0.15 0.13 0.10 0.11 0.14 0.20 0.22 0.18 0.15 0.16 0.15 0.18 0.22 0.26 0.25 0.21 0.17 0.14 0.16 0.13 0.06 0.03 0.02 0.01 0.01 0.01 0.00 0.00 0.00 0.00 0.00 0.00 0.00 0.00 0.00
0.19 0.16 0.13 0.12 0.11 0.10 0.10 0.12 0.17 0.18 0.21 0.16 0.16 0.18 0.16 0.16 0.20 0.20 0.22 0.25 0.24 0.26 0.31 0.21 0.13 0.10 0.08 0.05 0.04 0.03 0.02 0.01 0.01 0.01 0.00 0.00 0.00 0.00
0.18 0.16 0.13 0.11 0.10 0.12 0.13 0.20 0.25 0.30 0.30 0.25 0.23 0.24 0.22 0.19 0.17 0.21 0.27 0.29 0.30 0.28 0.30 0.33 0.29 0.21 0.17 0.15 0.15 0.12 0.10 0.08 0.07 0.04 0.02 0.02 0.01 0.01
0.17 0.19 0.17 0.11 0.07 0.07 0.06 0.11 0.16 0.26 0.31 0.31 0.31 0.32 0.29 0.23 0.19 0.24 0.26 0.33 0.33 0.29 0.28 0.30 0.32 0.27 0.25 0.22 0.21 0.21 0.20 0.17 0.14 0.10 0.07 0.05 0.03 0.02
0.22 0.24 0.21 0.13 0.10 0.07 0.03 0.03 0.04 0.08 0.14 0.18 0.22 0.27 0.32 0.34 0.33 0.33 0.32 0.32 0.34 0.37 0.35 0.39 0.38 0.34 0.32 0.26 0.24 0.28 0.28 0.25 0.20 0.15 0.11 0.08 0.06 0.05
0.25 0.28 0.32 0.25 0.21 0.17 0.13 0.08 0.06 0.05 0.03 0.06 0.13 0.20 0.23 0.25 0.28 0.30 0.30 0.32 0.35 0.37 0.29 0.27 0.27 0.25 0.26 0.25 0.23 0.25 0.29 0.25 0.21 0.17 0.15 0.13 0.12 0.13
0.24 0.27 0.37 0.35 0.32 0.25 0.22 0.22 0.17 0.13 0.08 0.04 0.08 0.12 0.11 0.15 0.19 0.23 0.22 0.17 0.15 0.12 0.10 0.12 0.15 0.16 0.16 0.15 0.14 0.13 0.15 0.15 0.15 0.14 0.15 0.15 0.14 0.14
0.18 0.23 0.30 0.35 0.34 0.29 0.20 0.20 0.21 0.19 0.15 0.12 0.07 0.06 0.04 0.04 0.08 0.15 0.20 0.19 0.15 0.13 0.10 0.08 0.08 0.09 0.09 0.09 0.08 0.08 0.07 0.07 0.08 0.09 0.09 0.10 0.10 0.11
0.06 0.13 0.21 0.21 0.22 0.20 0.15 0.23 0.32 0.20 0.16 0.19 0.17 0.13 0.12 0.13 0.17 0.18 0.21 0.24 0.25 0.27 0.26 0.21 0.18 0.15 0.15 0.12 0.07 0.05 0.05 0.06 0.06 0.06 0.06 0.06 0.06 0.06
0.01 0.04 0.07 0.05 0.07 0.10 0.11 0.19 0.26 0.15 0.13 0.19 0.19 0.15 0.15 0.16 0.17 0.13 0.14 0.22 0.27 0.32 0.38 0.41 0.38 0.35 0.29 0.23 0.14 0.07 0.03 0.02 0.01 0.02 0.02 0.02 0.02 0.02
0.01 0.01 0.02 0.02 0.02 0.03 0.05 0.10 0.13 0.12 0.15 0.21 0.22 0.17 0.13 0.14 0.10 0.07 0.08 0.12 0.16 0.21 0.24 0.21 0.20 0.19 0.17 0.13 0.10 0.07 0.03 0.02 0.01 0.01 0.01 0.02 0.02 0.02
0.02 0.02 0.01 0.01 0.01 0.01 0.02 0.05 0.08 0.13 0.18 0.22 0.23 0.19 0.13 0.12 0.10 0.09 0.11 0.13 0.12 0.09 0.07 0.05 0.05 0.05 0.03 0.03 0.03 0.03 0.03 0.02 0.01 0.01 0.01 0.01 0.01 0.02
0.03 0.03 0.02 0.01 0.01 0.02 0.05 0.07 0.09 0.16 0.21 0.22 0.22 0.16 0.11 0.11 0.10 0.08 0.08 0.08 0.08 0.06 0.04 0.03 0.04 0.04 0.04 0.04 0.03 0.03 0.04 0.04 0.02 0.02 0.02 0.02 0.02 0.03
0.03 0.06 0.07 0.07 0.07 0.09 0.15 0.20 0.19 0.18 0.22 0.23 0.21 0.17 0.13 0.12 0.07 0.03 0.02 0.02 0.04 0.06 0.06 0.04 0.03 0.03 0.03 0.03 0.04 0.05 0.06 0.05 0.04 0.06 0.05 0.04 0.04 0.06
0.07 0.11 0.16 0.20 0.20 0.24 0.25 0.26 0.27 0.26 0.25 0.22 0.18 0.13 0.11 0.09 0.06 0.04 0.03 0.04 0.06 0.05 0.03 0.02 0.01 0.01 0.02 0.04 0.03 0.04 0.07 0.07 0.08 0.09 0.07 0.04 0.04 0.07
0.07 0.16 0.35 0.38 0.32 0.35 0.34 0.30 0.24 0.18 0.17 0.13 0.09 0.05 0.03 0.03 0.03 0.03 0.02 0.02 0.02 0.02 0.02 0.03 0.04 0.04 0.04 0.05 0.06 0.03 0.06 0.09 0.07 0.06 0.05 0.04 0.04 0.04
0.05 0.11 0.23 0.26 0.27 0.28 0.24 0.18 0.11 0.07 0.06 0.04 0.02 0.01 0.01 0.01 0.01 0.01 0.01 0.01 0.01 0.01 0.02 0.04 0.04 0.03 0.04 0.05 0.07 0.08 0.04 0.04 0.04 0.03 0.03 0.02 0.02 0.02
0.06 0.10 0.13 0.15 0.14 0.11 0.09 0.07 0.03 0.02 0.02 0.01 0.01 0.01 0.01 0.01 0.01 0.01 0.01 0.00 0.01 0.01 0.02 0.03 0.02 0.01 0.02 0.04 0.07 0.08 0.05 0.05 0.04 0.02 0.01 0.01 0.01 0.01
0.03 0.04 0.05 0.04 0.03 0.02 0.02 0.01 0.01 0.00 0.00 0.00 0.01 0.01 0.01 0.01 0.01 0.01 0.01 0.01 0.01 0.01 0.01 0.01 0.01 0.02 0.03 0.04 0.06 0.06 0.05 0.04 0.05 0.07 0.05 0.03 0.02 0.01
0.01 0.01 0.00 0.00 0.00 0.00 0.00 0.00 0.00 0.00 0.00 0.00 0.00 0.01 0.02 0.02 0.01 0.01 0.01 0.01 0.01 0.01 0.01 0.00 0.00 0.01 0.01 0.02 0.04 0.04 0.04 0.04 0.05 0.07 0.07 0.06 0.03 0.01

GEFSNE_prec_meanprecacc_030.txt.gz
Total_Precipitation_Accumulation
0.53 0.47 0.44 0.42 0.41 0.43 0.46 0.39 0.31 0.25 0.25 0.18 0.12 0.06 0.07 0.05 0.04 0.02 0.01 0.05 0.07 0.06 0.04 0.02 0.01 0.01 0.01 0.02 0.02 0.04 0.04 0.04 0.03 0.02 0.01 0.00 0.00 0.00
0.54 0.48 0.44 0.40 0.42 0.43 0.45 0.45 0.38 0.31 0.27 0.23 0.19 0.14 0.15 0.13 0.13 0.07 0.04 0.04 0.06 0.06 0.04 0.03 0.01 0.01 0.00 0.01 0.01 0.01 0.01 0.01 0.01 0.01 0.01 0.01 0.01 0.00
0.55 0.48 0.43 0.39 0.40 0.38 0.39 0.41 0.39 0.36 0.25 0.24 0.19 0.16 0.21 0.22 0.23 0.16 0.11 0.07 0.07 0.05 0.04 0.03 0.03 0.03 0.02 0.01 0.00 0.01 0.01 0.01 0.01 0.01 0.01 0.01 0.00 0.00
0.46 0.46 0.44 0.41 0.39 0.33 0.31 0.31 0.33 0.33 0.27 0.22 0.19 0.16 0.18 0.23 0.26 0.25 0.21 0.17 0.15 0.16 0.14 0.08 0.05 0.04 0.03 0.02 0.01 0.00 0.00 0.00 0.00 0.00 0.01 0.01 0.00 0.00
0.30 0.32 0.35 0.35 0.35 0.31 0.28 0.28 0.28 0.27 0.29 0.22 0.20 0.19 0.17 0.16 0.20 0.20 0.22 0.25 0.24 0.26 0.31 0.22 0.14 0.11 0.10 0.07 0.05 0.03 0.03 0.02 0.02 0.01 0.02 0.02 0.02 0.02
0.27 0.27 0.27 0.25 0.24 0.26 0.27 0.32 0.33 0.36 0.35 0.28 0.26 0.25 0.23 0.20 0.18 0.22 0.28 0.31 0.32 0.29 0.31 0.34 0.31 0.24 0.20 0.18 0.18 0.15 0.13 0.11 0.09 0.06 0.05 0.04 0.04 0.05
0.26 0.30 0.29 0.23 0.19 0.18 0.15 0.18 0.21 0.30 0.34 0.34 0.33 0.33 0.31 0.24 0.21 0.25 0.28 0.36 0.36 0.34 0.33 0.33 0.35 0.30 0.29 0.26 0.24 0.24 0.23 0.20 0.17 0.13 0.10 0.09 0.07 0.06
0.30 0.33 0.31 0.26 0.25 0.18 0.11 0.09 0.09 0.12 0.18 0.21 0.24 0.29 0.33 0.35 0.35 0.34 0.35 0.36 0.37 0.42 0.38 0.41 0.40 0.36 0.35 0.29 0.28 0.31 0.31 0.27 0.22 0.18 0.14 0.12 0.10 0.10
0.30 0.37 0.44 0.40 0.37 0.34 0.28 0.17 0.11 0.07 0.06 0.09 0.15 0.22 0.25 0.27 0.30 0.34 0.36 0.39 0.38 0.40 0.31 0.29 0.29 0.27 0.29 0.28 0.25 0.26 0.30 0.27 0.23 0.19 0.17 0.16 0.15 0.16
0.28 0.34 0.50 0.53 0.51 0.46 0.43 0.44 0.31 0.19 0.11 0.06 0.10 0.14 0.13 0.17 0.22 0.27 0.26 0.20 0.17 0.14 0.12 0.14 0.17 0.17 0.18 0.17 0.16 0.14 0.16 0.16 0.15 0.15 0.15 0.16 0.16 0.16
0.21 0.29 0.39 0.49 0.52 0.51 0.41 0.39 0.35 0.26 0.21 0.16 0.09 0.07 0.05 0.05 0.10 0.18 0.23 0.22 0.17 0.15 0.11 0.08 0.09 0.10 0.09 0.10 0.09 0.08 0.07 0.07 0.08 0.09 0.09 0.10 0.11 0.11
0.08 0.16 0.28 0.31 0.33 0.36 0.33 0.41 0.46 0.29 0.22 0.23 0.19 0.14 0.12 0.13 0.19 0.23 0.27 0.29 0.27 0.28 0.26 0.21 0.19 0.16 0.16 0.13 0.07 0.05 0.05 0.06 0.06 0.06 0.06 0.06 0.06 0.06
0.02 0.07 0.10 0.11 0.14 0.22 0.26 0.33 0.42 0.26 0.20 0.23 0.22 0.16 0.15 0.17 0.17 0.14 0.16 0.25 0.29 0.32 0.38 0.41 0.39 0.36 0.30 0.24 0.14 0.07 0.03 0.02 0.01 0.02 0.02 0.02 0.02 0.02
0.02 0.03 0.05 0.05 0.06 0.09 0.12 0.18 0.23 0.22 0.22 0.27 0.26 0.19 0.14 0.14 0.10 0.08 0.09 0.12 0.16 0.21 0.25 0.22 0.21 0.20 0.17 0.14 0.11 0.07 0.03 0.02 0.01 0.01 0.01 0.02 0.02 0.02
0.03 0.03 0.03 0.03 0.04 0.05 0.06 0.11 0.15 0.22 0.28 0.28 0.27 0.21 0.14 0.12 0.10 0.09 0.11 0.13 0.12 0.09 0.07 0.05 0.05 0.05 0.04 0.04 0.03 0.03 0.03 0.02 0.01 0.01 0.01 0.01 0.01 0.02
0.04 0.04 0.03 0.02 0.03 0.05 0.08 0.11 0.16 0.26 0.31 0.29 0.25 0.18 0.11 0.11 0.10 0.08 0.08 0.08 0.08 0.06 0.04 0.03 0.04 0.04 0.04 0.04 0.03 0.03 0.04 0.04 0.02 0.02 0.02 0.02 0.02 0.03
0.04 0.07 0.08 0.08 0.08 0.11 0.17 0.23 0.24 0.24 0.28 0.27 0.24 0.19 0.14 0.12 0.08 0.03 0.02 0.02 0.04 0.06 0.06 0.04 0.03 0.03 0.03 0.03 0.04 0.05 0.06 0.05 0.05 0.06 0.06 0.04 0.04 0.06
0.08 0.12 0.17 0.20 0.21 0.25 0.27 0.29 0.31 0.30 0.29 0.26 0.20 0.15 0.12 0.10 0.07 0.04 0.03 0.04 0.06 0.05 0.03 0.02 0.01 0.01 0.02 0.04 0.03 0.04 0.07 0.07 0.08 0.09 0.07 0.04 0.04 0.07
0.07 0.17 0.35 0.39 0.33 0.35 0.35 0.32 0.25 0.20 0.18 0.14 0.09 0.05 0.04 0.03 0.03 0.03 0.02 0.02 0.02 0.02 0.02 0.03 0.04 0.04 0.04 0.05 0.07 0.03 0.07 0.09 0.07 0.06 0.05 0.04 0.04 0.04
0.05 0.11 0.23 0.26 0.27 0.28 0.25 0.19 0.11 0.08 0.07 0.04 0.02 0.01 0.01 0.01 0.01 0.01 0.01 0.01 0.01 0.01 0.02 0.04 0.04 0.03 0.04 0.05 0.07 0.08 0.04 0.04 0.04 0.04 0.03 0.02 0.02 0.02
0.06 0.10 0.13 0.15 0.14 0.11 0.09 0.07 0.03 0.02 0.02 0.01 0.01 0.01 0.01 0.01 0.01 0.01 0.01 0.00 0.01 0.01 0.02 0.03 0.02 0.01 0.02 0.04 0.07 0.08 0.05 0.05 0.04 0.02 0.01 0.01 0.01 0.01
0.03 0.04 0.05 0.04 0.03 0.02 0.02 0.01 0.01 0.00 0.00 0.00 0.01 0.01 0.01 0.01 0.01 0.01 0.01 0.01 0.01 0.01 0.01 0.01 0.01 0.02 0.03 0.04 0.06 0.06 0.05 0.04 0.05 0.07 0.05 0.03 0.02 0.01
0.01 0.01 0.00 0.00 0.00 0.00 0.00 0.00 0.00 0.00 0.00 0.00 0.00 0.01 0.02 0.02 0.01 0.01 0.01 0.01 0.01 0.01 0.01 0.00 0.00 0.01 0.01 0.02 0.04 0.04 0.04 0.04 0.05 0.07 0.07 0.06 0.03 0.01

GEFSNE_prec_meanprecacc_036.txt.gz
Total_Precipitation_Accumulation
0.79 0.73 0.68 0.62 0.58 0.57 0.57 0.49 0.41 0.35 0.32 0.24 0.16 0.10 0.11 0.10 0.11 0.06 0.03 0.06 0.08 0.06 0.04 0.02 0.01 0.01 0.01 0.02 0.03 0.04 0.06 0.07 0.06 0.05 0.04 0.03 0.02 0.02
0.66 0.62 0.59 0.58 0.58 0.57 0.57 0.56 0.50 0.41 0.37 0.31 0.25 0.18 0.19 0.17 0.17 0.09 0.06 0.06 0.06 0.06 0.04 0.03 0.02 0.01 0.01 0.01 0.01 0.01 0.01 0.02 0.02 0.02 0.02 0.02 0.03 0.02
0.59 0.53 0.51 0.49 0.51 0.50 0.50 0.51 0.50 0.45 0.35 0.34 0.27 0.22 0.26 0.26 0.26 0.18 0.13 0.10 0.08 0.06 0.05 0.04 0.04 0.04 0.03 0.02 0.01 0.01 0.01 0.01 0.01 0.02 0.02 0.02 0.02 0.01
0.48 0.48 0.47 0.45 0.44 0.40 0.40 0.40 0.43 0.42 0.36 0.31 0.27 0.22 0.23 0.26 0.30 0.29 0.25 0.22 0.19 0.17 0.15 0.09 0.07 0.06 0.04 0.03 0.02 0.01 0.01 0.01 0.01 0.01 0.02 0.02 0.02 0.01
0.33 0.34 0.38 0.39 0.40 0.37 0.34 0.36 0.38 0.37 0.39 0.32 0.30 0.28 0.23 0.20 0.24 0.25 0.26 0.33 0.30 0.28 0.33 0.24 0.17 0.13 0.11 0.08 0.06 0.05 0.04 0.03 0.02 0.02 0.02 0.03 0.03 0.03
0.35 0.33 0.31 0.29 0.29 0.32 0.34 0.41 0.43 0.47 0.47 0.41 0.39 0.37 0.33 0.27 0.26 0.30 0.36 0.42 0.43 0.34 0.34 0.37 0.33 0.27 0.22 0.20 0.19 0.16 0.14 0.11 0.09 0.07 0.06 0.05 0.05 0.06
0.35 0.38 0.35 0.29 0.24 0.23 0.21 0.27 0.31 0.42 0.46 0.46 0.46 0.46 0.43 0.35 0.31 0.38 0.43 0.50 0.52 0.48 0.41 0.39 0.39 0.33 0.31 0.27 0.25 0.24 0.23 0.21 0.18 0.14 0.11 0.10 0.08 0.07
0.40 0.42 0.38 0.31 0.31 0.24 0.18 0.16 0.18 0.21 0.28 0.33 0.37 0.41 0.45 0.46 0.49 0.49 0.51 0.49 0.49 0.57 0.46 0.47 0.43 0.38 0.36 0.30 0.29 0.31 0.32 0.28 0.23 0.19 0.14 0.12 0.11 0.10
0.38 0.49 0.54 0.48 0.44 0.42 0.37 0.26 0.19 0.14 0.17 0.22 0.31 0.35 0.35 0.38 0.45 0.50 0.56 0.58 0.48 0.47 0.35 0.33 0.32 0.28 0.29 0.29 0.26 0.27 0.31 0.27 0.23 0.19 0.17 0.16 0.15 0.16
0.32 0.42 0.63 0.64 0.59 0.55 0.56 0.59 0.45 0.29 0.24 0.20 0.26 0.26 0.23 0.29 0.40 0.46 0.45 0.32 0.24 0.20 0.14 0.15 0.19 0.18 0.18 0.17 0.16 0.15 0.16 0.16 0.15 0.15 0.16 0.16 0.16 0.17
0.26 0.35 0.49 0.60 0.60 0.59 0.55 0.56 0.52 0.37 0.31 0.26 0.17 0.14 0.14 0.18 0.25 0.34 0.36 0.29 0.20 0.18 0.12 0.09 0.10 0.10 0.10 0.10 0.09 0.08 0.07 0.07 0.08 0.09 0.09 0.10 0.11 0.11
0.13 0.22 0.36 0.40 0.41 0.44 0.50 0.57 0.63 0.43 0.32 0.33 0.27 0.21 0.18 0.23 0.35 0.44 0.45 0.40 0.31 0.31 0.28 0.23 0.20 0.16 0.16 0.13 0.08 0.06 0.05 0.06 0.06 0.06 0.06 0.06 0.06 0.06
0.05 0.12 0.16 0.19 0.23 0.31 0.39 0.47 0.58 0.43 0.38 0.42 0.37 0.26 0.24 0.25 0.29 0.31 0.34 0.40 0.38 0.35 0.39 0.42 0.41 0.38 0.31 0.24 0.15 0.07 0.03 0.02 0.02 0.02 0.02 0.02 0.02 0.02
0.05 0.07 0.08 0.09 0.12 0.16 0.21 0.27 0.36 0.41 0.42 0.46 0.42 0.28 0.19 0.18 0.14 0.13 0.14 0.18 0.21 0.23 0.26 0.24 0.25 0.23 0.18 0.14 0.11 0.07 0.04 0.02 0.01 0.01 0.01 0.02 0.02 0.02
0.05 0.06 0.05 0.06 0.09 0.11 0.13 0.18 0.27 0.39 0.47 0.45 0.36 0.24 0.15 0.13 0.10 0.10 0.11 0.13 0.12 0.10 0.08 0.07 0.08 0.07 0.05 0.04 0.04 0.03 0.03 0.02 0.01 0.01 0.01 0.01 0.01 0.02
0.07 0.06 0.05 0.07 0.09 0.11 0.15 0.19 0.29 0.41 0.47 0.40 0.29 0.19 0.12 0.11 0.10 0.08 0.08 0.08 0.08 0.06 0.04 0.03 0.04 0.04 0.04 0.04 0.03 0.04 0.05 0.04 0.02 0.02 0.02 0.02 0.02 0.03
0.08 0.12 0.13 0.15 0.17 0.21 0.27 0.34 0.36 0.36 0.38 0.33 0.29 0.21 0.16 0.14 0.08 0.04 0.02 0.02 0.04 0.06 0.06 0.04 0.03 0.03 0.03 0.03 0.04 0.05 0.06 0.05 0.05 0.06 0.06 0.04 0.04 0.06
0.11 0.17 0.22 0.26 0.27 0.31 0.36 0.40 0.41 0.39 0.37 0.32 0.25 0.20 0.15 0.11 0.07 0.04 0.03 0.04 0.06 0.05 0.03 0.02 0.01 0.01 0.02 0.04 0.03 0.04 0.07 0.07 0.08 0.09 0.07 0.04 0.04 0.07
0.09 0.20 0.38 0.41 0.35 0.38 0.39 0.38 0.31 0.24 0.23 0.20 0.15 0.09 0.06 0.04 0.04 0.03 0.03 0.02 0.02 0.02 0.02 0.03 0.04 0.04 0.04 0.05 0.07 0.03 0.07 0.09 0.07 0.06 0.05 0.04 0.04 0.04
0.05 0.12 0.24 0.27 0.28 0.30 0.27 0.23 0.16 0.12 0.10 0.07 0.04 0.02 0.02 0.01 0.01 0.01 0.01 0.01 0.01 0.01 0.02 0.04 0.04 0.03 0.04 0.05 0.07 0.08 0.04 0.04 0.04 0.04 0.03 0.02 0.02 0.02
0.06 0.10 0.13 0.15 0.14 0.12 0.10 0.08 0.06 0.04 0.03 0.02 0.02 0.01 0.02 0.01 0.01 0.01 0.01 0.00 0.01 0.01 0.02 0.03 0.02 0.01 0.02 0.04 0.07 0.08 0.05 0.05 0.04 0.02 0.01 0.01 0.01 0.01
0.04 0.05 0.05 0.05 0.04 0.03 0.02 0.02 0.02 0.01 0.01 0.01 0.01 0.01 0.01 0.01 0.01 0.01 0.01 0.01 0.01 0.01 0.01 0.01 0.01 0.02 0.03 0.04 0.06 0.06 0.05 0.04 0.05 0.07 0.05 0.03 0.02 0.01
0.01 0.01 0.01 0.00 0.01 0.01 0.01 0.01 0.01 0.00 0.00 0.00 0.00 0.01 0.02 0.02 0.01 0.01 0.01 0.01 0.01 0.01 0.01 0.00 0.00 0.01 0.01 0.02 0.04 0.04 0.04 0.04 0.05 0.07 0.07 0.06 0.03 0.01

GEFSNE_prec_meanprecacc_042.txt.gz
Total_Precipitation_Accumulation
1.23 1.16 1.07 0.97 0.90 0.83 0.82 0.72 0.59 0.46 0.39 0.29 0.23 0.19 0.20 0.17 0.21 0.19 0.14 0.13 0.12 0.10 0.09 0.07 0.04 0.02 0.02 0.03 0.04 0.06 0.09 0.11 0.10 0.08 0.07 0.06 0.05 0.05
1.07 1.06 1.00 0.93 0.92 0.88 0.84 0.81 0.69 0.55 0.47 0.38 0.30 0.25 0.27 0.25 0.26 0.19 0.17 0.15 0.13 0.11 0.08 0.06 0.04 0.03 0.02 0.02 0.02 0.02 0.03 0.03 0.03 0.04 0.04 0.04 0.04 0.04
0.78 0.78 0.80 0.77 0.79 0.79 0.79 0.75 0.70 0.61 0.47 0.43 0.33 0.28 0.32 0.33 0.34 0.26 0.22 0.18 0.14 0.10 0.08 0.06 0.07 0.06 0.05 0.03 0.02 0.03 0.03 0.02 0.03 0.03 0.03 0.03 0.03 0.02
0.56 0.57 0.58 0.59 0.63 0.63 0.62 0.61 0.61 0.59 0.50 0.41 0.34 0.27 0.27 0.32 0.38 0.36 0.33 0.29 0.26 0.25 0.23 0.17 0.14 0.12 0.09 0.06 0.04 0.03 0.02 0.02 0.02 0.03 0.03 0.03 0.03 0.03
0.36 0.37 0.41 0.44 0.47 0.46 0.45 0.47 0.50 0.48 0.47 0.39 0.36 0.34 0.27 0.24 0.29 0.31 0.33 0.42 0.39 0.39 0.45 0.37 0.26 0.21 0.16 0.11 0.08 0.06 0.05 0.04 0.03 0.02 0.03 0.03 0.04 0.05
0.37 0.34 0.33 0.31 0.32 0.37 0.40 0.47 0.50 0.54 0.53 0.46 0.44 0.41 0.36 0.30 0.30 0.35 0.43 0.51 0.52 0.44 0.44 0.45 0.40 0.33 0.27 0.23 0.21 0.18 0.15 0.12 0.10 0.08 0.06 0.06 0.06 0.07
0.37 0.39 0.36 0.31 0.26 0.26 0.25 0.31 0.37 0.47 0.51 0.51 0.50 0.50 0.46 0.39 0.35 0.43 0.50 0.57 0.61 0.57 0.49 0.45 0.44 0.38 0.34 0.30 0.27 0.26 0.25 0.22 0.19 0.15 0.12 0.11 0.09 0.07
0.42 0.44 0.39 0.33 0.33 0.27 0.21 0.20 0.22 0.26 0.32 0.37 0.40 0.45 0.48 0.51 0.55 0.55 0.58 0.57 0.60 0.68 0.54 0.54 0.47 0.41 0.38 0.32 0.31 0.33 0.33 0.28 0.24 0.19 0.15 0.12 0.11 0.11
0.40 0.50 0.56 0.49 0.46 0.45 0.41 0.29 0.22 0.18 0.21 0.26 0.35 0.39 0.39 0.42 0.50 0.57 0.63 0.67 0.58 0.57 0.42 0.41 0.37 0.32 0.32 0.31 0.28 0.28 0.31 0.28 0.23 0.19 0.17 0.16 0.16 0.16
0.34 0.43 0.65 0.66 0.61 0.58 0.60 0.63 0.48 0.31 0.28 0.25 0.31 0.31 0.28 0.34 0.48 0.57 0.56 0.44 0.36 0.29 0.21 0.21 0.24 0.22 0.21 0.19 0.17 0.15 0.16 0.16 0.15 0.15 0.16 0.16 0.16 0.17
0.27 0.38 0.51 0.64 0.62 0.62 0.59 0.60 0.55 0.41 0.35 0.30 0.21 0.19 0.20 0.27 0.35 0.44 0.47 0.40 0.31 0.26 0.17 0.12 0.12 0.12 0.11 0.11 0.09 0.08 0.08 0.07 0.08 0.09 0.09 0.10 0.11 0.11
0.14 0.25 0.41 0.46 0.45 0.50 0.55 0.61 0.68 0.48 0.37 0.37 0.32 0.28 0.26 0.33 0.48 0.57 0.55 0.48 0.37 0.36 0.32 0.25 0.21 0.17 0.17 0.14 0.08 0.06 0.05 0.06 0.06 0.06 0.06 0.06 0.06 0.06
0.08 0.16 0.22 0.27 0.30 0.37 0.45 0.52 0.65 0.51 0.47 0.50 0.46 0.37 0.35 0.37 0.42 0.44 0.49 0.52 0.44 0.38 0.40 0.43 0.42 0.38 0.31 0.24 0.15 0.07 0.03 0.02 0.02 0.02 0.02 0.02 0.02 0.02
0.09 0.12 0.14 0.15 0.18 0.23 0.27 0.35 0.45 0.50 0.51 0.56 0.53 0.40 0.32 0.32 0.29 0.27 0.28 0.30 0.29 0.27 0.27 0.25 0.25 0.23 0.18 0.14 0.11 0.07 0.04 0.02 0.01 0.01 0.01 0.02 0.02 0.02
0.08 0.10 0.10 0.12 0.16 0.18 0.21 0.27 0.36 0.48 0.58 0.56 0.46 0.34 0.27 0.25 0.23 0.23 0.22 0.21 0.16 0.12 0.09 0.07 0.08 0.07 0.05 0.04 0.04 0.03 0.03 0.02 0.01 0.01 0.01 0.01 0.01 0.02
0.09 0.08 0.07 0.12 0.16 0.17 0.21 0.29 0.41 0.51 0.55 0.47 0.35 0.25 0.18 0.19 0.20 0.17 0.14 0.11 0.10 0.07 0.04 0.03 0.04 0.04 0.04 0.04 0.03 0.04 0.05 0.04 0.02 0.02 0.02 0.02 0.02 0.03
0.09 0.14 0.15 0.19 0.23 0.27 0.37 0.44 0.45 0.43 0.43 0.37 0.32 0.24 0.19 0.17 0.12 0.07 0.04 0.03 0.05 0.06 0.06 0.04 0.03 0.03 0.03 0.03 0.04 0.05 0.06 0.05 0.05 0.06 0.06 0.04 0.04 0.06
0.12 0.19 0.25 0.30 0.32 0.38 0.44 0.47 0.47 0.44 0.40 0.35 0.28 0.21 0.16 0.12 0.08 0.05 0.03 0.04 0.06 0.05 0.03 0.02 0.01 0.01 0.02 0.04 0.03 0.04 0.07 0.07 0.08 0.09 0.07 0.04 0.04 0.07
0.10 0.20 0.39 0.42 0.37 0.41 0.43 0.42 0.35 0.28 0.25 0.22 0.16 0.10 0.06 0.04 0.04 0.03 0.03 0.02 0.02 0.02 0.02 0.03 0.04 0.04 0.04 0.05 0.07 0.03 0.07 0.09 0.07 0.06 0.05 0.04 0.04 0.04
0.05 0.12 0.24 0.27 0.29 0.31 0.28 0.25 0.18 0.13 0.11 0.08 0.04 0.02 0.02 0.01 0.01 0.01 0.01 0.01 0.01 0.01 0.02 0.04 0.04 0.03 0.04 0.05 0.07 0.08 0.04 0.04 0.04 0.04 0.03 0.02 0.02 0.02
0.06 0.10 0.13 0.15 0.14 0.13 0.11 0.09 0.07 0.05 0.04 0.03 0.02 0.01 0.02 0.01 0.01 0.01 0.01 0.00 0.01 0.01 0.02 0.03 0.02 0.01 0.02 0.04 0.07 0.08 0.05 0.05 0.04 0.02 0.01 0.01 0.01 0.01
0.04 0.05 0.05 0.05 0.04 0.03 0.02 0.02 0.02 0.01 0.01 0.01 0.01 0.01 0.01 0.01 0.01 0.01 0.01 0.01 0.01 0.01 0.01 0.01 0.01 0.02 0.03 0.04 0.06 0.06 0.05 0.04 0.05 0.07 0.05 0.03 0.02 0.01
0.01 0.01 0.01 0.00 0.01 0.01 0.01 0.01 0.01 0.00 0.00 0.00 0.00 0.01 0.02 0.02 0.01 0.01 0.01 0.01 0.01 0.01 0.01 0.00 0.00 0.01 0.01 0.02 0.04 0.04 0.04 0.04 0.05 0.07 0.07 0.06 0.03 0.01

GEFSNE_prec_meanprecacc_048.txt.gz
Total_Precipitation_Accumulation
1.36 1.32 1.25 1.16 1.12 1.05 1.05 0.96 0.83 0.67 0.50 0.34 0.27 0.23 0.26 0.24 0.30 0.27 0.23 0.20 0.18 0.17 0.16 0.13 0.10 0.07 0.06 0.06 0.07 0.09 0.11 0.14 0.13 0.10 0.09 0.09 0.08 0.07
1.19 1.21 1.17 1.13 1.14 1.12 1.11 1.08 0.96 0.79 0.64 0.49 0.38 0.32 0.35 0.33 0.36 0.27 0.28 0.28 0.22 0.19 0.16 0.12 0.09 0.07 0.05 0.04 0.04 0.04 0.05 0.04 0.05 0.05 0.05 0.05 0.05 0.05
0.89 0.91 0.94 0.95 0.99 1.00 1.03 1.03 1.00 0.90 0.70 0.60 0.46 0.38 0.40 0.41 0.42 0.36 0.33 0.31 0.27 0.22 0.17 0.14 0.13 0.10 0.08 0.06 0.04 0.05 0.04 0.04 0.04 0.04 0.05 0.05 0.05 0.04
0.65 0.68 0.71 0.72 0.78 0.81 0.83 0.85 0.89 0.90 0.80 0.69 0.55 0.42 0.39 0.43 0.50 0.49 0.45 0.43 0.42 0.41 0.36 0.27 0.22 0.18 0.13 0.09 0.06 0.05 0.04 0.04 0.04 0.04 0.04 0.04 0.05 0.05
0.42 0.44 0.49 0.53 0.58 0.61 0.62 0.68 0.74 0.78 0.79 0.70 0.65 0.56 0.45 0.39 0.44 0.45 0.47 0.56 0.56 0.57 0.61 0.48 0.34 0.26 0.19 0.14 0.10 0.08 0.07 0.05 0.04 0.03 0.04 0.05 0.05 0.07
0.41 0.38 0.37 0.37 0.39 0.46 0.54 0.65 0.72 0.80 0.83 0.76 0.75 0.70 0.60 0.49 0.45 0.51 0.58 0.64 0.64 0.55 0.55 0.54 0.47 0.38 0.31 0.26 0.24 0.20 0.17 0.13 0.11 0.08 0.07 0.07 0.07 0.08
0.39 0.41 0.39 0.34 0.31 0.33 0.34 0.43 0.52 0.67 0.74 0.78 0.79 0.78 0.72 0.60 0.52 0.56 0.62 0.71 0.74 0.66 0.56 0.52 0.49 0.43 0.40 0.35 0.33 0.31 0.29 0.25 0.21 0.16 0.13 0.12 0.10 0.09
0.43 0.45 0.41 0.35 0.36 0.32 0.29 0.29 0.35 0.41 0.48 0.53 0.59 0.65 0.69 0.70 0.72 0.69 0.69 0.69 0.73 0.77 0.59 0.60 0.53 0.47 0.45 0.38 0.38 0.40 0.38 0.33 0.26 0.21 0.16 0.14 0.12 0.12
0.41 0.51 0.57 0.51 0.47 0.48 0.46 0.35 0.29 0.28 0.33 0.39 0.48 0.53 0.54 0.57 0.66 0.72 0.75 0.77 0.67 0.65 0.47 0.48 0.44 0.38 0.38 0.37 0.35 0.34 0.36 0.31 0.26 0.21 0.19 0.17 0.16 0.17
0.35 0.45 0.67 0.68 0.62 0.59 0.63 0.66 0.52 0.36 0.34 0.33 0.41 0.42 0.41 0.51 0.66 0.75 0.71 0.55 0.46 0.38 0.27 0.27 0.30 0.28 0.27 0.25 0.24 0.20 0.20 0.18 0.17 0.16 0.16 0.16 0.17 0.17
0.29 0.41 0.54 0.65 0.64 0.64 0.62 0.63 0.59 0.46 0.40 0.37 0.30 0.30 0.32 0.41 0.54 0.63 0.62 0.52 0.41 0.35 0.24 0.17 0.18 0.17 0.16 0.16 0.14 0.12 0.10 0.09 0.09 0.09 0.10 0.10 0.11 0.11
0.17 0.29 0.45 0.48 0.47 0.53 0.59 0.66 0.71 0.53 0.41 0.42 0.39 0.37 0.36 0.46 0.65 0.74 0.71 0.59 0.45 0.45 0.38 0.29 0.24 0.20 0.21 0.18 0.10 0.07 0.06 0.07 0.06 0.06 0.06 0.06 0.06 0.06
0.10 0.20 0.26 0.31 0.32 0.40 0.49 0.59 0.70 0.55 0.51 0.55 0.51 0.44 0.46 0.48 0.56 0.60 0.65 0.66 0.54 0.46 0.47 0.49 0.47 0.41 0.32 0.26 0.16 0.08 0.04 0.03 0.02 0.02 0.02 0.02 0.02 0.02
0.11 0.16 0.18 0.19 0.20 0.25 0.31 0.41 0.52 0.56 0.57 0.61 0.57 0.45 0.42 0.44 0.41 0.42 0.46 0.47 0.44 0.40 0.36 0.31 0.31 0.27 0.21 0.15 0.12 0.08 0.04 0.02 0.01 0.01 0.01 0.02 0.02 0.02
0.11 0.14 0.15 0.17 0.20 0.22 0.25 0.32 0.44 0.57 0.67 0.62 0.52 0.40 0.35 0.37 0.37 0.38 0.41 0.42 0.36 0.29 0.19 0.13 0.12 0.11 0.07 0.06 0.04 0.04 0.03 0.02 0.01 0.01 0.01 0.01 0.01 0.02
0.10 0.11 0.11 0.17 0.21 0.20 0.25 0.35 0.48 0.62 0.68 0.56 0.45 0.33 0.29 0.36 0.38 0.33 0.30 0.29 0.27 0.22 0.13 0.09 0.08 0.06 0.05 0.04 0.04 0.04 0.05 0.04 0.02 0.02 0.02 0.02 0.02 0.03
0.09 0.14 0.16 0.21 0.25 0.31 0.41 0.49 0.50 0.49 0.52 0.46 0.42 0.35 0.31 0.34 0.31 0.25 0.20 0.16 0.15 0.14 0.12 0.07 0.05 0.04 0.03 0.04 0.04 0.05 0.06 0.05 0.05 0.06 0.06 0.04 0.04 0.06
0.12 0.19 0.25 0.31 0.34 0.41 0.47 0.49 0.49 0.46 0.45 0.42 0.36 0.31 0.26 0.24 0.22 0.17 0.14 0.12 0.12 0.09 0.06 0.03 0.02 0.02 0.02 0.04 0.03 0.04 0.07 0.07 0.08 0.09 0.07 0.04 0.04 0.07
0.10 0.20 0.39 0.43 0.38 0.42 0.44 0.43 0.35 0.29 0.26 0.25 0.21 0.16 0.11 0.09 0.09 0.09 0.07 0.06 0.05 0.04 0.03 0.03 0.04 0.04 0.04 0.05 0.07 0.03 0.07 0.09 0.07 0.06 0.05 0.04 0.04 0.04
0.05 0.12 0.24 0.27 0.29 0.31 0.29 0.26 0.19 0.13 0.12 0.08 0.06 0.04 0.03 0.03 0.03 0.02 0.02 0.02 0.02 0.01 0.02 0.04 0.04 0.03 0.04 0.05 0.07 0.08 0.04 0.04 0.04 0.04 0.03 0.02 0.02 0.02
0.06 0.10 0.13 0.15 0.14 0.13 0.11 0.09 0.07 0.05 0.04 0.03 0.02 0.02 0.02 0.02 0.01 0.01 0.01 0.00 0.01 0.01 0.02 0.03 0.02 0.01 0.02 0.04 0.07 0.08 0.05 0.05 0.04 0.02 0.01 0.01 0.01 0.01
0.04 0.05 0.05 0.05 0.04 0.03 0.02 0.02 0.02 0.01 0.01 0.01 0.01 0.01 0.01 0.01 0.01 0.01 0.01 0.01 0.01 0.01 0.01 0.01 0.01 0.02 0.03 0.04 0.06 0.06 0.05 0.04 0.05 0.07 0.05 0.03 0.02 0.01
0.01 0.01 0.01 0.00 0.01 0.01 0.01 0.01 0.01 0.00 0.00 0.00 0.00 0.01 0.02 0.02 0.01 0.01 0.01 0.01 0.01 0.01 0.01 0.00 0.00 0.01 0.01 0.02 0.04 0.04 0.04 0.04 0.05 0.07 0.07 0.06 0.03 0.01

GEFSNE_prec_meanprecacc_054.txt.gz
Total_Precipitation_Accumulation
1.43 1.40 1.35 1.28 1.25 1.20 1.20 1.10 0.97 0.81 0.62 0.43 0.33 0.28 0.30 0.29 0.40 0.34 0.27 0.24 0.21 0.19 0.19 0.16 0.12 0.10 0.10 0.10 0.10 0.12 0.15 0.17 0.15 0.11 0.09 0.09 0.09 0.08
1.25 1.28 1.25 1.23 1.26 1.26 1.27 1.24 1.10 0.91 0.77 0.60 0.47 0.40 0.41 0.39 0.44 0.34 0.34 0.36 0.28 0.23 0.20 0.16 0.13 0.10 0.07 0.06 0.05 0.05 0.05 0.05 0.05 0.06 0.05 0.06 0.07 0.07
0.95 0.97 1.00 1.03 1.09 1.10 1.16 1.18 1.15 1.04 0.80 0.71 0.57 0.47 0.49 0.48 0.49 0.42 0.41 0.38 0.33 0.28 0.23 0.19 0.18 0.14 0.10 0.08 0.05 0.05 0.05 0.04 0.04 0.05 0.05 0.05 0.05 0.05
0.71 0.75 0.78 0.81 0.88 0.92 0.94 0.97 1.02 1.05 0.94 0.81 0.67 0.53 0.48 0.51 0.59 0.58 0.55 0.51 0.49 0.52 0.45 0.34 0.28 0.22 0.16 0.10 0.07 0.06 0.05 0.05 0.05 0.05 0.05 0.05 0.05 0.06
0.48 0.51 0.56 0.61 0.68 0.73 0.75 0.80 0.88 0.91 0.92 0.83 0.78 0.70 0.59 0.53 0.58 0.59 0.60 0.71 0.69 0.72 0.78 0.62 0.45 0.33 0.24 0.17 0.13 0.09 0.08 0.06 0.04 0.04 0.05 0.06 0.06 0.08
0.46 0.44 0.44 0.44 0.47 0.56 0.65 0.77 0.86 0.96 0.98 0.89 0.88 0.85 0.77 0.68 0.68 0.75 0.80 0.85 0.88 0.75 0.76 0.75 0.67 0.53 0.41 0.33 0.28 0.22 0.18 0.14 0.12 0.09 0.08 0.07 0.08 0.09
0.42 0.45 0.44 0.40 0.38 0.41 0.43 0.55 0.66 0.82 0.92 0.95 0.95 0.97 0.93 0.86 0.78 0.84 0.93 1.00 1.03 0.95 0.83 0.75 0.71 0.61 0.55 0.47 0.40 0.35 0.31 0.26 0.22 0.17 0.14 0.12 0.10 0.09
0.45 0.47 0.45 0.41 0.42 0.40 0.38 0.40 0.46 0.55 0.66 0.73 0.79 0.85 0.91 0.96 1.02 1.02 1.04 1.06 1.12 1.09 0.87 0.88 0.77 0.68 0.60 0.49 0.47 0.45 0.41 0.35 0.28 0.22 0.17 0.14 0.13 0.12
0.43 0.54 0.60 0.54 0.52 0.55 0.55 0.47 0.39 0.37 0.46 0.60 0.68 0.71 0.76 0.84 1.01 1.10 1.11 1.09 1.00 0.98 0.75 0.80 0.72 0.61 0.55 0.50 0.44 0.41 0.41 0.35 0.29 0.24 0.21 0.18 0.17 0.17
0.37 0.48 0.71 0.72 0.65 0.64 0.68 0.74 0.62 0.44 0.41 0.46 0.59 0.63 0.63 0.76 1.03 1.23 1.17 0.94 0.86 0.81 0.66 0.65 0.62 0.52 0.45 0.40 0.38 0.30 0.27 0.23 0.20 0.19 0.18 0.18 0.18 0.18
0.32 0.44 0.58 0.71 0.68 0.67 0.66 0.69 0.67 0.54 0.47 0.47 0.44 0.48 0.56 0.68 0.88 1.11 1.17 1.04 0.88 0.80 0.61 0.51 0.50 0.44 0.40 0.34 0.30 0.26 0.20 0.16 0.13 0.12 0.11 0.11 0.11 0.11
0.19 0.32 0.48 0.51 0.49 0.55 0.63 0.71 0.78 0.61 0.50 0.55 0.52 0.54 0.56 0.71 0.95 1.10 1.13 1.02 0.88 0.81 0.68 0.54 0.48 0.40 0.44 0.39 0.25 0.19 0.15 0.14 0.12 0.09 0.08 0.07 0.07 0.06
0.12 0.23 0.30 0.33 0.34 0.41 0.52 0.63 0.75 0.61 0.60 0.67 0.65 0.61 0.67 0.73 0.84 0.92 1.01 1.02 0.87 0.74 0.68 0.67 0.66 0.54 0.43 0.38 0.28 0.19 0.11 0.08 0.06 0.05 0.04 0.04 0.03 0.02
0.13 0.18 0.22 0.21 0.22 0.26 0.33 0.44 0.55 0.60 0.64 0.71 0.69 0.59 0.59 0.65 0.69 0.72 0.78 0.80 0.74 0.66 0.56 0.45 0.43 0.37 0.28 0.21 0.17 0.14 0.10 0.06 0.04 0.03 0.03 0.03 0.02 0.02
0.12 0.16 0.18 0.19 0.22 0.23 0.26 0.34 0.48 0.62 0.74 0.71 0.63 0.53 0.51 0.55 0.56 0.64 0.69 0.70 0.66 0.62 0.48 0.32 0.24 0.20 0.15 0.12 0.10 0.08 0.08 0.06 0.03 0.02 0.02 0.01 0.01 0.02
0.11 0.12 0.13 0.18 0.22 0.22 0.27 0.37 0.52 0.70 0.76 0.66 0.57 0.45 0.42 0.53 0.55 0.53 0.53 0.53 0.55 0.54 0.42 0.31 0.24 0.16 0.12 0.09 0.07 0.07 0.07 0.06 0.04 0.03 0.02 0.02 0.02 0.03
0.09 0.15 0.18 0.24 0.29 0.35 0.45 0.52 0.54 0.59 0.64 0.55 0.55 0.48 0.43 0.47 0.47 0.41 0.38 0.34 0.34 0.33 0.31 0.25 0.20 0.15 0.09 0.07 0.07 0.07 0.07 0.06 0.05 0.06 0.06 0.04 0.04 0.06
0.12 0.20 0.27 0.33 0.38 0.45 0.49 0.51 0.53 0.54 0.56 0.51 0.49 0.45 0.38 0.37 0.36 0.33 0.29 0.27 0.27 0.23 0.19 0.15 0.12 0.10 0.07 0.06 0.05 0.06 0.08 0.08 0.09 0.09 0.07 0.04 0.04 0.07
0.10 0.21 0.40 0.44 0.39 0.44 0.46 0.44 0.37 0.33 0.33 0.33 0.32 0.28 0.24 0.24 0.26 0.25 0.22 0.21 0.19 0.15 0.12 0.11 0.10 0.09 0.08 0.06 0.07 0.04 0.07 0.09 0.08 0.06 0.05 0.04 0.04 0.04
0.06 0.12 0.25 0.28 0.30 0.33 0.30 0.27 0.20 0.15 0.15 0.15 0.14 0.14 0.14 0.14 0.14 0.14 0.13 0.12 0.12 0.10 0.08 0.08 0.07 0.06 0.06 0.07 0.08 0.08 0.04 0.04 0.04 0.04 0.03 0.02 0.02 0.02
0.06 0.10 0.13 0.15 0.15 0.13 0.12 0.10 0.07 0.06 0.06 0.06 0.07 0.09 0.09 0.09 0.06 0.06 0.07 0.08 0.07 0.07 0.06 0.05 0.04 0.02 0.03 0.05 0.08 0.08 0.05 0.05 0.04 0.02 0.01 0.01 0.01 0.01
0.04 0.05 0.05 0.05 0.04 0.03 0.03 0.03 0.02 0.03 0.02 0.02 0.03 0.04 0.05 0.04 0.03 0.03 0.03 0.03 0.04 0.05 0.04 0.03 0.02 0.02 0.03 0.04 0.06 0.06 0.05 0.04 0.05 0.07 0.05 0.03 0.02 0.01
0.01 0.01 0.01 0.00 0.01 0.01 0.01 0.01 0.01 0.02 0.02 0.01 0.01 0.02 0.03 0.04 0.02 0.01 0.01 0.01 0.01 0.02 0.02 0.02 0.01 0.01 0.01 0.03 0.04 0.04 0.04 0.04 0.05 0.07 0.07 0.06 0.03 0.01

GEFSNE_prec_meanprecacc_060.txt.gz
Total_Precipitation_Accumulation
1.51 1.51 1.48 1.40 1.40 1.35 1.38 1.28 1.14 0.94 0.71 0.49 0.39 0.31 0.35 0.38 0.57 0.51 0.37 0.33 0.26 0.20 0.19 0.17 0.12 0.10 0.11 0.13 0.15 0.17 0.20 0.21 0.18 0.13 0.11 0.11 0.10 0.10
1.33 1.36 1.37 1.37 1.41 1.40 1.42 1.41 1.29 1.09 0.90 0.70 0.57 0.46 0.48 0.45 0.54 0.42 0.42 0.50 0.38 0.28 0.21 0.17 0.13 0.10 0.08 0.07 0.07 0.07 0.08 0.07 0.07 0.07 0.07 0.07 0.08 0.08
1.01 1.03 1.09 1.15 1.22 1.24 1.32 1.34 1.33 1.22 0.93 0.81 0.70 0.59 0.59 0.57 0.58 0.50 0.50 0.49 0.42 0.34 0.25 0.20 0.19 0.15 0.11 0.08 0.06 0.06 0.06 0.06 0.06 0.06 0.06 0.07 0.06 0.05
0.75 0.80 0.86 0.92 1.00 1.05 1.09 1.12 1.19 1.23 1.10 0.94 0.79 0.65 0.59 0.60 0.71 0.73 0.68 0.61 0.59 0.61 0.51 0.37 0.30 0.24 0.18 0.12 0.08 0.07 0.06 0.07 0.06 0.06 0.07 0.07 0.07 0.07
0.50 0.54 0.62 0.69 0.78 0.84 0.88 0.94 1.04 1.09 1.14 1.00 0.92 0.82 0.68 0.63 0.72 0.73 0.76 0.88 0.83 0.86 0.91 0.69 0.49 0.37 0.28 0.21 0.16 0.12 0.10 0.08 0.06 0.05 0.06 0.07 0.08 0.09
0.48 0.47 0.48 0.50 0.54 0.64 0.75 0.91 1.01 1.13 1.18 1.08 1.04 1.00 0.87 0.78 0.82 0.88 0.94 0.99 1.04 0.90 0.91 0.87 0.75 0.60 0.47 0.38 0.32 0.26 0.21 0.17 0.15 0.12 0.09 0.09 0.09 0.10
0.46 0.49 0.49 0.44 0.41 0.44 0.46 0.62 0.79 0.98 1.11 1.14 1.13 1.13 1.05 0.95 0.87 0.94 1.04 1.13 1.20 1.15 1.01 0.91 0.84 0.71 0.63 0.56 0.49 0.44 0.39 0.33 0.28 0.22 0.17 0.14 0.11 0.10
0.50 0.53 0.50 0.44 0.46 0.43 0.41 0.44 0.52 0.64 0.80 0.90 0.97 1.01 1.04 1.08 1.12 1.15 1.19 1.24 1.30 1.28 1.07 1.08 0.97 0.86 0.74 0.61 0.59 0.59 0.55 0.47 0.38 0.30 0.23 0.18 0.15 0.14
0.47 0.60 0.67 0.59 0.57 0.60 0.61 0.52 0.44 0.41 0.52 0.69 0.82 0.86 0.92 0.99 1.15 1.21 1.24 1.25 1.17 1.18 0.99 1.06 0.97 0.87 0.78 0.71 0.66 0.59 0.57 0.49 0.41 0.34 0.29 0.24 0.21 0.19
0.42 0.54 0.78 0.82 0.72 0.68 0.72 0.81 0.70 0.52 0.48 0.52 0.67 0.75 0.78 0.91 1.19 1.37 1.32 1.13 1.07 1.09 0.95 0.97 0.94 0.82 0.73 0.67 0.66 0.54 0.47 0.40 0.34 0.30 0.26 0.23 0.22 0.21
0.36 0.47 0.63 0.79 0.73 0.68 0.69 0.75 0.77 0.65 0.56 0.55 0.50 0.56 0.66 0.81 1.04 1.27 1.34 1.26 1.14 1.09 0.90 0.79 0.83 0.81 0.79 0.70 0.63 0.57 0.46 0.37 0.30 0.24 0.20 0.18 0.16 0.15
0.22 0.38 0.53 0.53 0.50 0.55 0.67 0.78 0.86 0.70 0.59 0.64 0.61 0.62 0.64 0.81 1.10 1.26 1.30 1.23 1.11 1.08 0.98 0.84 0.80 0.77 0.92 0.87 0.66 0.56 0.48 0.43 0.35 0.27 0.21 0.17 0.14 0.11
0.14 0.28 0.37 0.34 0.34 0.41 0.53 0.66 0.79 0.65 0.66 0.78 0.79 0.75 0.81 0.86 0.98 1.08 1.20 1.23 1.11 0.96 0.91 0.95 0.98 0.85 0.76 0.78 0.73 0.59 0.46 0.38 0.31 0.26 0.21 0.17 0.11 0.07
0.15 0.21 0.25 0.22 0.22 0.26 0.33 0.45 0.56 0.63 0.71 0.82 0.87 0.80 0.77 0.83 0.87 0.90 0.97 1.03 0.98 0.91 0.82 0.71 0.73 0.66 0.54 0.49 0.51 0.53 0.46 0.36 0.26 0.21 0.18 0.17 0.12 0.07
0.13 0.17 0.18 0.19 0.22 0.24 0.27 0.35 0.49 0.67 0.84 0.83 0.76 0.70 0.71 0.77 0.76 0.84 0.91 0.95 0.93 0.89 0.77 0.59 0.54 0.51 0.43 0.38 0.36 0.36 0.36 0.33 0.25 0.18 0.14 0.11 0.07 0.05
0.13 0.13 0.14 0.19 0.22 0.23 0.29 0.40 0.55 0.74 0.82 0.74 0.69 0.58 0.58 0.70 0.73 0.71 0.73 0.75 0.80 0.83 0.73 0.63 0.55 0.46 0.41 0.37 0.32 0.30 0.26 0.24 0.22 0.17 0.12 0.10 0.07 0.06
0.10 0.16 0.21 0.28 0.34 0.40 0.50 0.57 0.58 0.62 0.68 0.61 0.64 0.58 0.54 0.60 0.60 0.57 0.56 0.51 0.54 0.56 0.56 0.54 0.52 0.45 0.37 0.33 0.32 0.29 0.25 0.18 0.15 0.16 0.15 0.11 0.08 0.08
0.12 0.21 0.29 0.37 0.43 0.50 0.55 0.56 0.55 0.56 0.59 0.56 0.54 0.54 0.48 0.47 0.48 0.46 0.46 0.46 0.47 0.44 0.39 0.34 0.34 0.36 0.35 0.35 0.30 0.26 0.25 0.21 0.18 0.16 0.13 0.08 0.07 0.08
0.10 0.22 0.42 0.47 0.43 0.47 0.51 0.49 0.42 0.35 0.35 0.37 0.36 0.34 0.33 0.34 0.36 0.36 0.36 0.37 0.38 0.34 0.32 0.30 0.27 0.25 0.25 0.23 0.23 0.18 0.21 0.21 0.16 0.13 0.10 0.07 0.05 0.05
0.06 0.13 0.26 0.30 0.32 0.36 0.34 0.31 0.24 0.18 0.18 0.18 0.17 0.18 0.19 0.21 0.23 0.26 0.25 0.24 0.26 0.26 0.26 0.25 0.22 0.19 0.17 0.17 0.17 0.16 0.11 0.12 0.10 0.08 0.07 0.04 0.02 0.02
0.06 0.10 0.14 0.16 0.16 0.15 0.14 0.13 0.11 0.10 0.09 0.09 0.11 0.13 0.13 0.14 0.13 0.13 0.16 0.19 0.18 0.17 0.19 0.19 0.16 0.14 0.12 0.13 0.15 0.15 0.10 0.09 0.07 0.05 0.03 0.03 0.02 0.01
0.04 0.05 0.05 0.05 0.04 0.04 0.04 0.05 0.06 0.07 0.07 0.06 0.06 0.08 0.09 0.09 0.09 0.08 0.07 0.08 0.10 0.13 0.13 0.15 0.13 0.10 0.09 0.10 0.11 0.10 0.08 0.07 0.07 0.09 0.06 0.04 0.02 0.01
0.02 0.01 0.01 0.01 0.01 0.01 0.02 0.02 0.03 0.06 0.07 0.06 0.05 0.05 0.06 0.07 0.07 0.06 0.05 0.05 0.06 0.08 0.09 0.10 0.10 0.08 0.07 0.07 0.07 0.07 0.06 0.06 0.06 0.07 0.07 0.06 0.03 0.01

GEFSNE_prec_meanprecacc_066.txt.gz
Total_Precipitation_Accumulation
1.52 1.52 1.50 1.43 1.43 1.38 1.41 1.33 1.18 0.96 0.73 0.51 0.40 0.33 0.39 0.44 0.67 0.67 0.54 0.54 0.46 0.35 0.27 0.22 0.16 0.13 0.13 0.16 0.19 0.22 0.26 0.27 0.24 0.17 0.14 0.13 0.13 0.12
1.33 1.37 1.38 1.39 1.43 1.43 1.45 1.45 1.34 1.12 0.92 0.72 0.59 0.49 0.54 0.52 0.62 0.53 0.57 0.71 0.59 0.45 0.33 0.24 0.18 0.13 0.11 0.10 0.10 0.10 0.11 0.10 0.10 0.11 0.10 0.10 0.11 0.11
1.01 1.04 1.10 1.16 1.23 1.26 1.34 1.38 1.37 1.26 0.95 0.83 0.72 0.62 0.64 0.64 0.67 0.60 0.63 0.65 0.58 0.51 0.40 0.30 0.25 0.19 0.15 0.12 0.09 0.09 0.08 0.08 0.08 0.09 0.09 0.10 0.09 0.07
0.75 0.81 0.87 0.93 1.01 1.06 1.10 1.14 1.23 1.27 1.14 0.97 0.82 0.68 0.62 0.64 0.78 0.82 0.81 0.73 0.70 0.74 0.66 0.49 0.39 0.31 0.22 0.16 0.12 0.09 0.09 0.09 0.08 0.08 0.09 0.09 0.09 0.09
0.50 0.54 0.63 0.70 0.79 0.86 0.89 0.96 1.06 1.13 1.18 1.04 0.94 0.86 0.72 0.67 0.77 0.79 0.87 1.02 0.96 0.99 1.06 0.86 0.62 0.46 0.34 0.26 0.20 0.16 0.13 0.10 0.08 0.07 0.08 0.10 0.10 0.11
0.48 0.47 0.50 0.51 0.55 0.65 0.77 0.93 1.04 1.16 1.21 1.12 1.07 1.03 0.92 0.83 0.87 0.93 1.00 1.08 1.15 1.04 1.05 1.01 0.90 0.75 0.58 0.47 0.39 0.31 0.26 0.22 0.20 0.16 0.13 0.11 0.10 0.11
0.46 0.49 0.51 0.47 0.44 0.46 0.48 0.64 0.81 1.00 1.14 1.18 1.17 1.18 1.10 1.02 0.93 0.98 1.09 1.20 1.30 1.29 1.18 1.05 1.00 0.86 0.75 0.66 0.57 0.50 0.45 0.39 0.34 0.28 0.23 0.18 0.14 0.12
0.50 0.53 0.51 0.46 0.48 0.45 0.44 0.46 0.54 0.65 0.82 0.92 0.99 1.04 1.08 1.14 1.19 1.22 1.24 1.30 1.36 1.36 1.20 1.20 1.12 1.01 0.86 0.71 0.69 0.68 0.63 0.55 0.46 0.37 0.29 0.23 0.19 0.17
0.47 0.61 0.67 0.60 0.59 0.61 0.62 0.54 0.46 0.43 0.54 0.71 0.83 0.87 0.94 1.03 1.21 1.28 1.31 1.30 1.21 1.23 1.09 1.16 1.09 0.98 0.90 0.84 0.80 0.72 0.69 0.62 0.52 0.44 0.38 0.32 0.27 0.24
0.42 0.54 0.79 0.83 0.73 0.69 0.72 0.81 0.71 0.54 0.51 0.54 0.68 0.77 0.80 0.95 1.23 1.43 1.39 1.20 1.14 1.16 1.05 1.06 1.03 0.92 0.84 0.80 0.82 0.71 0.65 0.57 0.51 0.45 0.39 0.34 0.31 0.28
0.36 0.48 0.64 0.79 0.73 0.69 0.69 0.75 0.78 0.67 0.59 0.58 0.52 0.59 0.69 0.85 1.08 1.31 1.38 1.31 1.19 1.14 0.97 0.86 0.90 0.91 0.92 0.86 0.81 0.77 0.66 0.58 0.51 0.44 0.39 0.33 0.29 0.27
0.22 0.38 0.53 0.54 0.50 0.55 0.67 0.78 0.87 0.71 0.60 0.66 0.63 0.65 0.67 0.84 1.13 1.30 1.35 1.27 1.15 1.12 1.02 0.90 0.87 0.87 1.05 1.04 0.85 0.78 0.74 0.71 0.63 0.54 0.46 0.38 0.34 0.28
0.14 0.28 0.37 0.35 0.34 0.41 0.53 0.66 0.80 0.65 0.67 0.79 0.81 0.78 0.84 0.90 1.01 1.12 1.25 1.29 1.15 1.00 0.95 1.00 1.04 0.93 0.86 0.92 0.94 0.84 0.73 0.68 0.64 0.58 0.51 0.44 0.36 0.27
0.15 0.21 0.25 0.22 0.22 0.26 0.33 0.45 0.56 0.64 0.72 0.83 0.89 0.84 0.79 0.85 0.90 0.93 1.02 1.09 1.03 0.96 0.86 0.76 0.79 0.74 0.65 0.61 0.66 0.76 0.76 0.70 0.62 0.58 0.53 0.53 0.45 0.35
0.13 0.17 0.18 0.19 0.22 0.24 0.27 0.35 0.49 0.68 0.84 0.84 0.77 0.73 0.74 0.80 0.79 0.88 0.97 1.01 1.00 0.96 0.83 0.65 0.60 0.60 0.55 0.50 0.50 0.54 0.64 0.69 0.65 0.58 0.52 0.48 0.42 0.37
0.13 0.13 0.14 0.19 0.22 0.23 0.29 0.40 0.55 0.75 0.82 0.74 0.70 0.60 0.61 0.74 0.77 0.76 0.80 0.84 0.89 0.91 0.81 0.72 0.65 0.57 0.54 0.51 0.49 0.49 0.47 0.50 0.55 0.56 0.53 0.48 0.42 0.36
0.10 0.16 0.21 0.28 0.34 0.40 0.50 0.57 0.58 0.62 0.68 0.61 0.65 0.59 0.56 0.63 0.65 0.63 0.63 0.60 0.61 0.63 0.64 0.63 0.65 0.60 0.53 0.51 0.51 0.50 0.49 0.43 0.40 0.45 0.50 0.50 0.46 0.41
0.12 0.21 0.29 0.37 0.43 0.50 0.55 0.56 0.55 0.56 0.59 0.56 0.55 0.55 0.49 0.49 0.50 0.50 0.51 0.52 0.54 0.52 0.47 0.43 0.44 0.49 0.51 0.55 0.52 0.46 0.46 0.46 0.45 0.43 0.40 0.37 0.37 0.37
0.10 0.22 0.42 0.47 0.43 0.47 0.51 0.49 0.42 0.36 0.36 0.37 0.36 0.35 0.34 0.35 0.38 0.38 0.39 0.43 0.45 0.42 0.42 0.40 0.37 0.36 0.37 0.37 0.38 0.35 0.41 0.42 0.39 0.38 0.36 0.31 0.28 0.28
0.06 0.13 0.26 0.30 0.32 0.36 0.34 0.31 0.24 0.19 0.18 0.18 0.18 0.19 0.21 0.23 0.24 0.28 0.28 0.27 0.32 0.33 0.34 0.35 0.32 0.28 0.28 0.29 0.28 0.27 0.26 0.31 0.30 0.28 0.28 0.27 0.26 0.29
0.07 0.11 0.14 0.16 0.16 0.15 0.14 0.13 0.11 0.11 0.10 0.09 0.11 0.14 0.15 0.15 0.15 0.15 0.19 0.22 0.21 0.22 0.25 0.28 0.26 0.27 0.26 0.28 0.29 0.27 0.23 0.25 0.25 0.21 0.22 0.23 0.21 0.18
0.05 0.05 0.06 0.06 0.05 0.05 0.05 0.06 0.06 0.08 0.08 0.07 0.07 0.09 0.11 0.11 0.10 0.09 0.09 0.10 0.13 0.16 0.18 0.22 0.24 0.23 0.21 0.23 0.24 0.23 0.21 0.20 0.22 0.27 0.24 0.20 0.16 0.11
0.03 0.02 0.02 0.02 0.03 0.03 0.04 0.04 0.04 0.07 0.09 0.08 0.07 0.07 0.09 0.09 0.09 0.09 0.08 0.07 0.08 0.10 0.13 0.16 0.19 0.19 0.19 0.18 0.18 0.19 0.20 0.19 0.18 0.19 0.19 0.18 0.14 0.11

GEFSNE_prec_meanprecacc_072.txt.gz
Total_Precipitation_Accumulation
1.52 1.52 1.50 1.43 1.44 1.39 1.42 1.34 1.20 0.98 0.74 0.51 0.41 0.34 0.40 0.46 0.71 0.70 0.57 0.58 0.53 0.42 0.33 0.27 0.21 0.18 0.19 0.23 0.28 0.32 0.38 0.39 0.34 0.27 0.23 0.20 0.19 0.18
1.33 1.37 1.38 1.39 1.44 1.43 1.46 1.46 1.35 1.13 0.93 0.72 0.60 0.50 0.55 0.53 0.64 0.56 0.60 0.74 0.63 0.51 0.39 0.30 0.23 0.19 0.16 0.15 0.15 0.15 0.17 0.19 0.20 0.22 0.20 0.19 0.19 0.18
1.02 1.04 1.10 1.17 1.24 1.26 1.35 1.38 1.37 1.27 0.96 0.83 0.73 0.63 0.66 0.66 0.69 0.62 0.66 0.69 0.62 0.56 0.46 0.36 0.31 0.25 0.21 0.18 0.15 0.14 0.13 0.14 0.16 0.18 0.19 0.20 0.17 0.15
0.76 0.81 0.87 0.94 1.01 1.07 1.11 1.15 1.23 1.28 1.15 0.97 0.83 0.69 0.63 0.65 0.80 0.84 0.83 0.77 0.74 0.79 0.71 0.55 0.46 0.37 0.29 0.23 0.19 0.16 0.15 0.15 0.14 0.15 0.16 0.18 0.18 0.16
0.51 0.55 0.63 0.71 0.79 0.87 0.90 0.97 1.07 1.14 1.19 1.05 0.96 0.87 0.73 0.69 0.79 0.81 0.89 1.05 0.99 1.03 1.11 0.91 0.68 0.54 0.42 0.33 0.27 0.23 0.20 0.16 0.14 0.13 0.14 0.17 0.18 0.18
0.48 0.48 0.51 0.52 0.55 0.66 0.77 0.93 1.04 1.17 1.22 1.13 1.08 1.05 0.93 0.84 0.89 0.95 1.02 1.11 1.19 1.07 1.08 1.04 0.94 0.81 0.65 0.53 0.46 0.39 0.34 0.29 0.26 0.22 0.20 0.18 0.17 0.17
0.46 0.50 0.51 0.48 0.45 0.47 0.49 0.65 0.82 1.02 1.15 1.19 1.18 1.20 1.12 1.03 0.94 1.00 1.11 1.23 1.34 1.34 1.23 1.10 1.04 0.91 0.81 0.71 0.63 0.56 0.52 0.47 0.42 0.35 0.30 0.26 0.22 0.19
0.50 0.54 0.51 0.46 0.49 0.46 0.45 0.48 0.56 0.67 0.83 0.93 1.00 1.06 1.10 1.17 1.23 1.25 1.27 1.32 1.39 1.39 1.25 1.26 1.18 1.05 0.90 0.76 0.74 0.73 0.70 0.63 0.54 0.45 0.37 0.31 0.28 0.26
0.47 0.61 0.67 0.60 0.59 0.61 0.62 0.55 0.47 0.44 0.55 0.72 0.83 0.88 0.95 1.04 1.24 1.31 1.33 1.33 1.23 1.25 1.13 1.20 1.15 1.03 0.93 0.88 0.86 0.79 0.77 0.70 0.61 0.52 0.46 0.40 0.36 0.34
0.42 0.54 0.79 0.83 0.73 0.69 0.73 0.81 0.71 0.55 0.51 0.55 0.68 0.77 0.81 0.95 1.25 1.46 1.43 1.23 1.15 1.18 1.07 1.09 1.06 0.97 0.90 0.85 0.87 0.78 0.74 0.67 0.61 0.55 0.49 0.45 0.41 0.40
0.36 0.48 0.64 0.79 0.73 0.69 0.69 0.75 0.78 0.67 0.60 0.59 0.54 0.60 0.70 0.86 1.11 1.34 1.41 1.34 1.20 1.15 0.99 0.89 0.92 0.94 0.97 0.93 0.88 0.84 0.73 0.68 0.65 0.61 0.56 0.51 0.48 0.48
0.22 0.38 0.53 0.54 0.50 0.55 0.67 0.78 0.87 0.71 0.60 0.67 0.65 0.66 0.68 0.85 1.16 1.33 1.38 1.31 1.18 1.14 1.04 0.92 0.90 0.91 1.09 1.08 0.91 0.86 0.82 0.79 0.73 0.69 0.64 0.59 0.60 0.57
0.14 0.28 0.37 0.35 0.34 0.41 0.53 0.67 0.80 0.65 0.67 0.80 0.83 0.80 0.85 0.90 1.02 1.14 1.28 1.33 1.19 1.02 0.98 1.03 1.07 0.97 0.90 0.95 0.98 0.90 0.80 0.76 0.72 0.69 0.68 0.65 0.62 0.56
0.15 0.21 0.25 0.22 0.22 0.26 0.33 0.45 0.57 0.64 0.72 0.84 0.90 0.85 0.80 0.86 0.91 0.95 1.04 1.12 1.07 1.00 0.91 0.81 0.84 0.78 0.69 0.65 0.69 0.79 0.81 0.76 0.70 0.67 0.64 0.70 0.68 0.64
0.13 0.17 0.18 0.19 0.22 0.24 0.27 0.35 0.49 0.68 0.85 0.84 0.77 0.74 0.75 0.81 0.81 0.90 0.99 1.03 1.03 1.00 0.89 0.72 0.67 0.66 0.61 0.55 0.54 0.57 0.67 0.74 0.70 0.65 0.62 0.62 0.61 0.62
0.13 0.13 0.14 0.19 0.22 0.23 0.29 0.40 0.55 0.75 0.83 0.75 0.70 0.60 0.62 0.75 0.78 0.78 0.82 0.86 0.91 0.94 0.85 0.77 0.71 0.63 0.60 0.56 0.53 0.53 0.50 0.53 0.60 0.64 0.62 0.60 0.58 0.58
0.10 0.16 0.21 0.28 0.34 0.40 0.50 0.57 0.58 0.62 0.68 0.61 0.65 0.59 0.56 0.63 0.66 0.64 0.65 0.62 0.63 0.64 0.66 0.66 0.69 0.65 0.59 0.58 0.57 0.55 0.53 0.47 0.45 0.53 0.60 0.62 0.61 0.58
0.12 0.21 0.29 0.37 0.43 0.50 0.55 0.56 0.55 0.56 0.59 0.56 0.55 0.55 0.50 0.50 0.51 0.52 0.53 0.54 0.57 0.55 0.50 0.46 0.49 0.54 0.57 0.61 0.57 0.51 0.52 0.52 0.53 0.54 0.52 0.51 0.52 0.54
0.10 0.22 0.42 0.47 0.43 0.48 0.51 0.49 0.42 0.36 0.36 0.37 0.36 0.35 0.34 0.35 0.39 0.40 0.40 0.45 0.48 0.45 0.46 0.45 0.42 0.42 0.44 0.43 0.42 0.39 0.44 0.47 0.47 0.50 0.50 0.46 0.43 0.45
0.07 0.14 0.27 0.30 0.32 0.36 0.34 0.31 0.25 0.19 0.18 0.18 0.18 0.19 0.21 0.23 0.26 0.29 0.29 0.28 0.33 0.35 0.37 0.39 0.37 0.35 0.35 0.36 0.34 0.32 0.31 0.36 0.36 0.38 0.41 0.43 0.45 0.55
0.07 0.12 0.15 0.17 0.17 0.16 0.15 0.13 0.12 0.11 0.10 0.09 0.11 0.14 0.15 0.16 0.16 0.17 0.20 0.23 0.23 0.23 0.27 0.30 0.29 0.32 0.32 0.34 0.35 0.30 0.27 0.31 0.32 0.30 0.34 0.40 0.41 0.40
0.05 0.06 0.06 0.06 0.05 0.05 0.05 0.06 0.07 0.08 0.08 0.07 0.07 0.09 0.11 0.12 0.11 0.11 0.11 0.13 0.15 0.18 0.20 0.24 0.26 0.26 0.26 0.29 0.29 0.28 0.27 0.28 0.32 0.39 0.38 0.35 0.30 0.28
0.03 0.03 0.03 0.02 0.03 0.03 0.04 0.04 0.05 0.08 0.09 0.08 0.08 0.08 0.09 0.10 0.10 0.10 0.09 0.09 0.11 0.13 0.16 0.19 0.21 0.22 0.23 0.22 0.24 0.25 0.26 0.27 0.28 0.31 0.32 0.33 0.29 0.27

GEFSNE_prec_meanprecacc_078.txt.gz
Total_Precipitation_Accumulation
1.52 1.53 1.51 1.44 1.44 1.39 1.43 1.37 1.23 1.00 0.76 0.53 0.43 0.36 0.43 0.48 0.72 0.70 0.57 0.60 0.55 0.43 0.34 0.28 0.22 0.19 0.20 0.26 0.33 0.38 0.46 0.47 0.43 0.36 0.33 0.30 0.27 0.27
1.33 1.38 1.39 1.40 1.45 1.44 1.47 1.47 1.36 1.16 0.95 0.74 0.61 0.52 0.56 0.55 0.66 0.57 0.60 0.76 0.64 0.51 0.40 0.32 0.25 0.21 0.18 0.16 0.17 0.18 0.20 0.23 0.25 0.28 0.28 0.28 0.29 0.28
1.02 1.04 1.11 1.17 1.25 1.28 1.36 1.40 1.39 1.28 0.97 0.85 0.74 0.64 0.67 0.68 0.70 0.63 0.66 0.70 0.63 0.57 0.46 0.37 0.33 0.27 0.23 0.20 0.16 0.16 0.15 0.16 0.19 0.22 0.25 0.26 0.24 0.22
0.76 0.82 0.88 0.94 1.02 1.08 1.13 1.17 1.25 1.30 1.17 1.00 0.85 0.72 0.65 0.67 0.81 0.86 0.84 0.77 0.74 0.80 0.72 0.57 0.47 0.39 0.30 0.25 0.21 0.18 0.17 0.17 0.17 0.17 0.20 0.23 0.24 0.22
0.51 0.55 0.64 0.71 0.81 0.88 0.92 0.98 1.08 1.15 1.21 1.07 0.97 0.89 0.75 0.71 0.81 0.83 0.90 1.06 0.99 1.05 1.13 0.93 0.70 0.55 0.44 0.35 0.30 0.26 0.23 0.19 0.17 0.17 0.18 0.20 0.22 0.23
0.48 0.49 0.52 0.53 0.57 0.67 0.79 0.95 1.06 1.18 1.23 1.14 1.10 1.07 0.94 0.86 0.91 0.97 1.05 1.13 1.20 1.08 1.10 1.06 0.97 0.83 0.67 0.56 0.48 0.41 0.37 0.33 0.31 0.28 0.25 0.24 0.22 0.21
0.46 0.50 0.52 0.48 0.46 0.49 0.50 0.66 0.83 1.03 1.16 1.20 1.19 1.21 1.14 1.05 0.97 1.02 1.13 1.26 1.36 1.36 1.25 1.12 1.07 0.94 0.84 0.74 0.65 0.58 0.54 0.50 0.46 0.40 0.36 0.33 0.29 0.26
0.51 0.54 0.51 0.46 0.49 0.47 0.46 0.48 0.56 0.67 0.84 0.95 1.02 1.07 1.12 1.18 1.25 1.27 1.29 1.35 1.43 1.42 1.28 1.30 1.22 1.09 0.94 0.79 0.77 0.76 0.73 0.67 0.59 0.50 0.43 0.38 0.35 0.35
0.47 0.61 0.67 0.60 0.59 0.62 0.63 0.56 0.48 0.45 0.56 0.73 0.85 0.89 0.96 1.06 1.26 1.33 1.35 1.35 1.26 1.31 1.18 1.24 1.19 1.08 0.98 0.92 0.90 0.83 0.81 0.74 0.66 0.58 0.52 0.47 0.42 0.40
0.42 0.54 0.79 0.83 0.73 0.69 0.73 0.82 0.72 0.55 0.51 0.55 0.69 0.78 0.81 0.96 1.27 1.48 1.45 1.26 1.18 1.22 1.14 1.15 1.11 1.01 0.94 0.90 0.92 0.82 0.78 0.72 0.66 0.62 0.57 0.52 0.49 0.47
0.36 0.48 0.64 0.79 0.73 0.69 0.69 0.76 0.79 0.68 0.60 0.59 0.54 0.60 0.70 0.87 1.12 1.36 1.44 1.37 1.23 1.18 1.04 0.96 0.99 0.99 1.01 0.97 0.92 0.88 0.78 0.74 0.72 0.69 0.64 0.59 0.57 0.59
0.22 0.38 0.53 0.54 0.50 0.55 0.67 0.78 0.87 0.71 0.60 0.67 0.66 0.67 0.68 0.86 1.17 1.35 1.40 1.34 1.21 1.17 1.09 0.99 0.96 0.96 1.13 1.11 0.95 0.90 0.86 0.84 0.80 0.76 0.72 0.69 0.71 0.70
0.15 0.28 0.37 0.35 0.34 0.41 0.53 0.67 0.80 0.66 0.67 0.81 0.84 0.81 0.86 0.91 1.03 1.15 1.30 1.36 1.23 1.07 1.03 1.10 1.13 1.01 0.95 0.99 1.01 0.94 0.86 0.81 0.78 0.75 0.74 0.74 0.75 0.71
0.15 0.22 0.25 0.22 0.22 0.26 0.33 0.45 0.57 0.64 0.72 0.84 0.91 0.87 0.82 0.87 0.92 0.95 1.05 1.14 1.09 1.03 0.96 0.88 0.91 0.84 0.76 0.69 0.73 0.82 0.84 0.81 0.76 0.73 0.71 0.78 0.76 0.75
0.13 0.17 0.18 0.19 0.22 0.24 0.27 0.35 0.49 0.68 0.85 0.85 0.78 0.75 0.77 0.82 0.81 0.91 0.99 1.04 1.04 1.02 0.92 0.76 0.71 0.72 0.67 0.61 0.58 0.61 0.72 0.78 0.75 0.70 0.67 0.68 0.67 0.69
0.13 0.13 0.14 0.19 0.22 0.23 0.29 0.40 0.55 0.75 0.83 0.75 0.70 0.61 0.62 0.77 0.80 0.79 0.84 0.87 0.92 0.95 0.86 0.80 0.74 0.68 0.65 0.61 0.58 0.56 0.55 0.58 0.65 0.68 0.68 0.66 0.66 0.65
0.10 0.17 0.21 0.28 0.34 0.40 0.50 0.57 0.58 0.62 0.68 0.61 0.65 0.60 0.56 0.63 0.67 0.66 0.67 0.64 0.65 0.66 0.67 0.68 0.72 0.68 0.62 0.61 0.61 0.58 0.56 0.51 0.49 0.57 0.65 0.67 0.65 0.65
0.12 0.21 0.30 0.37 0.43 0.50 0.55 0.56 0.55 0.56 0.60 0.57 0.56 0.55 0.50 0.50 0.52 0.53 0.54 0.56 0.59 0.57 0.51 0.48 0.50 0.56 0.59 0.63 0.60 0.54 0.55 0.56 0.57 0.58 0.57 0.55 0.55 0.57
0.10 0.23 0.42 0.47 0.43 0.48 0.51 0.50 0.42 0.36 0.36 0.37 0.37 0.36 0.35 0.36 0.39 0.41 0.41 0.46 0.49 0.47 0.48 0.47 0.44 0.45 0.47 0.45 0.44 0.41 0.46 0.50 0.51 0.54 0.55 0.52 0.48 0.49
0.07 0.14 0.27 0.31 0.33 0.37 0.35 0.32 0.25 0.19 0.19 0.19 0.18 0.20 0.21 0.24 0.26 0.30 0.30 0.29 0.35 0.37 0.38 0.41 0.39 0.38 0.39 0.40 0.37 0.34 0.33 0.38 0.39 0.41 0.44 0.47 0.50 0.60
0.07 0.12 0.15 0.17 0.17 0.16 0.15 0.14 0.12 0.12 0.11 0.10 0.12 0.14 0.15 0.16 0.16 0.17 0.21 0.24 0.24 0.24 0.28 0.31 0.31 0.35 0.35 0.37 0.37 0.32 0.29 0.33 0.35 0.33 0.37 0.43 0.45 0.44
0.05 0.06 0.07 0.07 0.06 0.05 0.05 0.06 0.07 0.09 0.08 0.07 0.07 0.09 0.11 0.12 0.11 0.11 0.12 0.13 0.16 0.19 0.22 0.25 0.28 0.28 0.28 0.32 0.32 0.30 0.29 0.30 0.34 0.42 0.40 0.38 0.33 0.30
0.03 0.03 0.03 0.03 0.03 0.03 0.04 0.04 0.05 0.08 0.09 0.08 0.08 0.08 0.10 0.10 0.10 0.10 0.09 0.09 0.11 0.14 0.17 0.20 0.23 0.24 0.25 0.25 0.26 0.27 0.28 0.29 0.30 0.33 0.34 0.36 0.32 0.29

GEFSNE_prec_meanprecacc_084.txt.gz
Total_Precipitation_Accumulation
1.55 1.55 1.54 1.47 1.46 1.42 1.46 1.41 1.27 1.04 0.81 0.58 0.46 0.39 0.45 0.51 0.76 0.73 0.60 0.64 0.58 0.45 0.36 0.29 0.23 0.20 0.22 0.28 0.36 0.44 0.53 0.55 0.50 0.43 0.41 0.38 0.35 0.34
1.35 1.39 1.41 1.41 1.46 1.46 1.49 1.50 1.39 1.19 0.99 0.78 0.65 0.54 0.58 0.56 0.67 0.58 0.63 0.80 0.67 0.54 0.42 0.33 0.26 0.22 0.19 0.18 0.19 0.20 0.22 0.26 0.29 0.32 0.32 0.33 0.35 0.36
1.02 1.05 1.12 1.19 1.26 1.30 1.39 1.43 1.41 1.30 1.00 0.89 0.78 0.65 0.68 0.69 0.71 0.64 0.68 0.71 0.65 0.60 0.48 0.39 0.34 0.28 0.24 0.21 0.18 0.17 0.17 0.19 0.22 0.25 0.28 0.30 0.28 0.26
0.77 0.82 0.88 0.95 1.04 1.11 1.16 1.21 1.29 1.33 1.20 1.02 0.88 0.74 0.66 0.69 0.83 0.87 0.85 0.78 0.76 0.82 0.75 0.59 0.49 0.40 0.32 0.26 0.22 0.20 0.19 0.19 0.19 0.20 0.23 0.27 0.30 0.28
0.52 0.56 0.65 0.72 0.83 0.90 0.94 1.00 1.10 1.17 1.23 1.09 1.00 0.92 0.78 0.73 0.84 0.85 0.91 1.08 1.00 1.05 1.14 0.94 0.71 0.57 0.45 0.37 0.32 0.28 0.25 0.21 0.19 0.19 0.21 0.25 0.27 0.30
0.49 0.49 0.52 0.54 0.59 0.69 0.81 0.97 1.08 1.20 1.25 1.15 1.11 1.08 0.96 0.88 0.94 1.00 1.07 1.16 1.22 1.10 1.11 1.07 0.98 0.84 0.68 0.57 0.51 0.44 0.39 0.34 0.32 0.29 0.27 0.26 0.25 0.26
0.46 0.51 0.52 0.48 0.47 0.51 0.51 0.67 0.84 1.04 1.18 1.22 1.21 1.23 1.16 1.07 0.98 1.04 1.16 1.29 1.39 1.39 1.28 1.14 1.09 0.96 0.85 0.75 0.67 0.60 0.56 0.51 0.47 0.42 0.38 0.35 0.32 0.29
0.51 0.54 0.52 0.46 0.49 0.48 0.46 0.48 0.56 0.68 0.85 0.96 1.04 1.09 1.13 1.20 1.27 1.29 1.31 1.37 1.45 1.46 1.32 1.33 1.25 1.12 0.96 0.81 0.78 0.78 0.74 0.68 0.60 0.52 0.44 0.39 0.38 0.38
0.47 0.61 0.67 0.60 0.59 0.62 0.63 0.56 0.48 0.45 0.57 0.74 0.86 0.90 0.97 1.08 1.27 1.34 1.37 1.37 1.28 1.33 1.21 1.26 1.22 1.10 1.00 0.94 0.92 0.85 0.83 0.76 0.68 0.60 0.54 0.49 0.45 0.44
0.42 0.54 0.79 0.83 0.73 0.69 0.73 0.82 0.73 0.56 0.53 0.56 0.69 0.78 0.81 0.97 1.28 1.49 1.47 1.27 1.20 1.25 1.17 1.17 1.13 1.04 0.97 0.93 0.95 0.85 0.80 0.74 0.68 0.63 0.59 0.55 0.52 0.51
0.36 0.48 0.64 0.79 0.73 0.69 0.69 0.76 0.80 0.69 0.61 0.60 0.55 0.60 0.70 0.87 1.13 1.37 1.45 1.39 1.24 1.20 1.07 0.98 1.01 1.03 1.06 1.00 0.95 0.91 0.81 0.78 0.75 0.71 0.66 0.61 0.61 0.65
0.22 0.38 0.54 0.54 0.50 0.55 0.67 0.78 0.87 0.71 0.61 0.68 0.67 0.68 0.68 0.86 1.17 1.36 1.43 1.37 1.24 1.20 1.12 1.02 1.00 1.02 1.19 1.17 1.01 0.96 0.90 0.88 0.84 0.80 0.76 0.73 0.76 0.76
0.15 0.29 0.38 0.35 0.34 0.41 0.53 0.67 0.80 0.66 0.68 0.82 0.85 0.83 0.87 0.92 1.05 1.17 1.32 1.39 1.26 1.09 1.05 1.13 1.17 1.07 1.01 1.04 1.06 1.00 0.92 0.86 0.83 0.81 0.80 0.79 0.80 0.77
0.16 0.22 0.26 0.22 0.22 0.26 0.33 0.45 0.57 0.64 0.73 0.85 0.93 0.89 0.84 0.89 0.94 0.98 1.07 1.16 1.12 1.06 0.98 0.91 0.96 0.90 0.81 0.74 0.76 0.86 0.90 0.87 0.82 0.78 0.77 0.85 0.82 0.81
0.13 0.17 0.18 0.19 0.22 0.24 0.27 0.35 0.49 0.68 0.85 0.85 0.79 0.76 0.79 0.84 0.83 0.92 1.01 1.05 1.06 1.04 0.94 0.79 0.76 0.77 0.73 0.67 0.62 0.65 0.76 0.83 0.80 0.74 0.71 0.73 0.73 0.74
0.13 0.13 0.14 0.19 0.22 0.23 0.29 0.40 0.55 0.75 0.83 0.75 0.70 0.61 0.63 0.78 0.82 0.81 0.85 0.88 0.93 0.97 0.88 0.82 0.77 0.73 0.70 0.66 0.63 0.60 0.59 0.63 0.70 0.74 0.73 0.70 0.70 0.70
0.10 0.17 0.22 0.28 0.34 0.40 0.50 0.57 0.58 0.62 0.68 0.62 0.65 0.60 0.57 0.64 0.68 0.67 0.68 0.65 0.67 0.67 0.69 0.70 0.73 0.70 0.65 0.64 0.64 0.61 0.59 0.55 0.55 0.63 0.70 0.71 0.69 0.69
0.13 0.22 0.30 0.38 0.43 0.51 0.55 0.56 0.56 0.57 0.60 0.57 0.56 0.56 0.51 0.51 0.52 0.54 0.56 0.58 0.62 0.60 0.54 0.50 0.52 0.58 0.60 0.64 0.62 0.56 0.58 0.59 0.61 0.63 0.61 0.59 0.57 0.60
0.10 0.23 0.43 0.47 0.43 0.48 0.51 0.50 0.42 0.36 0.36 0.38 0.37 0.36 0.35 0.36 0.39 0.41 0.42 0.47 0.50 0.48 0.50 0.50 0.48 0.48 0.49 0.47 0.45 0.42 0.49 0.53 0.55 0.58 0.59 0.56 0.51 0.51
0.07 0.14 0.27 0.31 0.33 0.37 0.35 0.32 0.25 0.19 0.19 0.19 0.19 0.20 0.21 0.24 0.26 0.30 0.30 0.29 0.35 0.37 0.39 0.42 0.41 0.41 0.42 0.43 0.39 0.35 0.34 0.39 0.41 0.43 0.46 0.50 0.53 0.63
0.07 0.12 0.15 0.17 0.18 0.16 0.15 0.14 0.12 0.12 0.11 0.10 0.12 0.14 0.15 0.16 0.16 0.17 0.21 0.24 0.24 0.25 0.28 0.31 0.32 0.35 0.36 0.39 0.39 0.32 0.29 0.34 0.36 0.34 0.39 0.45 0.46 0.45
0.05 0.06 0.07 0.07 0.06 0.05 0.05 0.06 0.07 0.09 0.08 0.07 0.07 0.09 0.11 0.12 0.11 0.11 0.12 0.13 0.16 0.19 0.22 0.25 0.28 0.29 0.29 0.33 0.33 0.30 0.29 0.31 0.35 0.43 0.41 0.39 0.35 0.32
0.03 0.03 0.03 0.03 0.03 0.03 0.04 0.04 0.05 0.08 0.09 0.08 0.08 0.08 0.10 0.10 0.10 0.10 0.09 0.09 0.11 0.14 0.17 0.20 0.23 0.24 0.25 0.25 0.26 0.27 0.28 0.29 0.31 0.34 0.35 0.37 0.33 0.30

GEFSNE_prec_meanprecacc_090.txt.gz
Total_Precipitation_Accumulation
1.56 1.56 1.54 1.48 1.47 1.43 1.47 1.42 1.28 1.06 0.83 0.62 0.52 0.46 0.53 0.59 0.82 0.79 0.66 0.69 0.62 0.48 0.38 0.31 0.25 0.21 0.25 0.32 0.42 0.51 0.61 0.65 0.62 0.54 0.53 0.53 0.51 0.50
1.36 1.39 1.41 1.42 1.46 1.47 1.49 1.50 1.40 1.20 1.02 0.82 0.69 0.58 0.62 0.60 0.71 0.62 0.67 0.83 0.70 0.57 0.44 0.35 0.28 0.23 0.20 0.20 0.22 0.23 0.27 0.31 0.35 0.39 0.41 0.42 0.46 0.49
1.02 1.05 1.12 1.19 1.26 1.30 1.39 1.43 1.42 1.32 1.03 0.91 0.80 0.67 0.70 0.70 0.73 0.66 0.71 0.74 0.67 0.62 0.50 0.40 0.35 0.29 0.25 0.22 0.19 0.19 0.20 0.22 0.25 0.29 0.34 0.36 0.34 0.33
0.77 0.82 0.88 0.95 1.04 1.11 1.17 1.22 1.30 1.34 1.22 1.05 0.90 0.76 0.69 0.70 0.84 0.88 0.86 0.79 0.77 0.84 0.76 0.60 0.50 0.42 0.33 0.27 0.23 0.21 0.21 0.21 0.22 0.24 0.28 0.33 0.37 0.35
0.52 0.56 0.65 0.72 0.83 0.90 0.95 1.00 1.10 1.18 1.25 1.11 1.03 0.94 0.78 0.74 0.85 0.86 0.92 1.08 1.01 1.06 1.15 0.96 0.73 0.59 0.47 0.40 0.34 0.29 0.27 0.24 0.21 0.22 0.25 0.30 0.34 0.37
0.49 0.49 0.53 0.54 0.59 0.70 0.82 0.97 1.08 1.20 1.26 1.17 1.12 1.08 0.97 0.88 0.94 1.00 1.08 1.16 1.23 1.10 1.11 1.07 0.98 0.85 0.70 0.58 0.52 0.46 0.42 0.38 0.36 0.33 0.30 0.29 0.29 0.30
0.46 0.51 0.52 0.48 0.47 0.51 0.52 0.67 0.84 1.04 1.18 1.23 1.22 1.24 1.17 1.07 0.99 1.04 1.16 1.29 1.40 1.40 1.29 1.15 1.10 0.97 0.86 0.76 0.68 0.61 0.57 0.54 0.51 0.45 0.41 0.39 0.36 0.33
0.51 0.54 0.52 0.46 0.50 0.48 0.46 0.49 0.56 0.68 0.85 0.97 1.05 1.10 1.14 1.21 1.27 1.29 1.31 1.37 1.45 1.46 1.33 1.34 1.26 1.12 0.97 0.81 0.79 0.79 0.76 0.70 0.62 0.54 0.47 0.43 0.40 0.40
0.47 0.61 0.67 0.60 0.59 0.62 0.63 0.56 0.49 0.46 0.57 0.75 0.87 0.91 0.97 1.08 1.27 1.35 1.37 1.37 1.28 1.34 1.22 1.27 1.23 1.10 1.00 0.94 0.93 0.86 0.84 0.77 0.69 0.62 0.57 0.52 0.48 0.46
0.42 0.54 0.79 0.83 0.73 0.69 0.73 0.82 0.73 0.56 0.53 0.57 0.70 0.78 0.81 0.97 1.28 1.49 1.47 1.28 1.20 1.26 1.18 1.18 1.14 1.04 0.97 0.93 0.95 0.86 0.82 0.75 0.69 0.65 0.60 0.57 0.56 0.55
0.36 0.48 0.64 0.79 0.73 0.69 0.69 0.76 0.80 0.69 0.61 0.60 0.55 0.60 0.70 0.87 1.13 1.37 1.45 1.39 1.25 1.22 1.09 1.00 1.03 1.04 1.06 1.01 0.95 0.92 0.83 0.79 0.77 0.74 0.69 0.64 0.64 0.68
0.22 0.38 0.54 0.54 0.50 0.55 0.67 0.78 0.87 0.71 0.61 0.68 0.67 0.68 0.69 0.86 1.17 1.36 1.43 1.37 1.25 1.22 1.14 1.03 1.01 1.03 1.20 1.18 1.03 0.97 0.91 0.90 0.86 0.83 0.79 0.76 0.80 0.80
0.15 0.29 0.38 0.35 0.34 0.41 0.53 0.67 0.80 0.66 0.68 0.82 0.85 0.83 0.88 0.93 1.05 1.17 1.32 1.40 1.28 1.11 1.07 1.15 1.18 1.08 1.03 1.05 1.07 1.02 0.94 0.89 0.86 0.83 0.83 0.82 0.83 0.80
0.16 0.22 0.26 0.22 0.22 0.26 0.33 0.45 0.57 0.64 0.73 0.85 0.93 0.89 0.84 0.90 0.95 0.98 1.07 1.16 1.13 1.06 0.99 0.92 0.96 0.90 0.82 0.75 0.77 0.87 0.92 0.90 0.86 0.83 0.81 0.90 0.87 0.86
0.13 0.17 0.18 0.19 0.22 0.24 0.27 0.35 0.49 0.68 0.85 0.85 0.79 0.76 0.79 0.84 0.83 0.93 1.01 1.06 1.06 1.04 0.94 0.79 0.76 0.77 0.74 0.67 0.63 0.66 0.77 0.84 0.81 0.76 0.74 0.77 0.77 0.81
0.13 0.13 0.14 0.19 0.22 0.23 0.29 0.40 0.55 0.75 0.83 0.75 0.70 0.61 0.63 0.78 0.82 0.81 0.85 0.88 0.93 0.97 0.88 0.82 0.78 0.73 0.70 0.66 0.63 0.60 0.59 0.64 0.71 0.75 0.74 0.72 0.71 0.72
0.10 0.17 0.22 0.28 0.34 0.40 0.50 0.57 0.58 0.62 0.68 0.62 0.65 0.60 0.57 0.64 0.68 0.67 0.68 0.66 0.67 0.67 0.69 0.70 0.73 0.70 0.65 0.64 0.65 0.61 0.60 0.55 0.55 0.64 0.72 0.73 0.70 0.71
0.13 0.22 0.30 0.38 0.43 0.51 0.55 0.56 0.56 0.57 0.60 0.57 0.56 0.56 0.51 0.51 0.52 0.54 0.56 0.58 0.62 0.60 0.54 0.50 0.52 0.58 0.60 0.65 0.62 0.57 0.58 0.60 0.62 0.64 0.63 0.61 0.59 0.61
0.11 0.23 0.43 0.47 0.43 0.48 0.51 0.50 0.42 0.36 0.36 0.38 0.37 0.36 0.35 0.36 0.39 0.41 0.42 0.47 0.50 0.48 0.50 0.50 0.48 0.49 0.50 0.48 0.46 0.43 0.50 0.54 0.55 0.59 0.60 0.57 0.53 0.53
0.07 0.14 0.27 0.31 0.33 0.37 0.35 0.32 0.25 0.19 0.19 0.19 0.19 0.20 0.21 0.24 0.26 0.30 0.30 0.29 0.35 0.37 0.39 0.42 0.41 0.41 0.42 0.43 0.40 0.36 0.35 0.40 0.42 0.44 0.47 0.51 0.54 0.64
0.07 0.12 0.15 0.17 0.18 0.16 0.15 0.14 0.12 0.12 0.11 0.10 0.12 0.14 0.15 0.16 0.16 0.17 0.21 0.24 0.24 0.25 0.28 0.31 0.32 0.35 0.36 0.39 0.39 0.33 0.30 0.35 0.37 0.35 0.39 0.46 0.47 0.46
0.05 0.06 0.07 0.07 0.06 0.05 0.05 0.06 0.07 0.09 0.08 0.07 0.07 0.09 0.11 0.12 0.11 0.11 0.12 0.13 0.16 0.19 0.22 0.25 0.28 0.29 0.29 0.33 0.33 0.30 0.29 0.31 0.35 0.43 0.41 0.39 0.35 0.33
0.03 0.03 0.03 0.03 0.03 0.03 0.04 0.04 0.05 0.08 0.09 0.08 0.08 0.08 0.10 0.10 0.10 0.10 0.09 0.09 0.11 0.14 0.17 0.20 0.23 0.24 0.25 0.25 0.26 0.27 0.28 0.29 0.31 0.34 0.35 0.37 0.33 0.30

GEFSNE_prec_meanprecacc_096.txt.gz
Total_Precipitation_Accumulation
1.59 1.58 1.56 1.49 1.49 1.45 1.49 1.45 1.33 1.10 0.86 0.65 0.55 0.49 0.58 0.64 0.87 0.84 0.71 0.76 0.67 0.52 0.42 0.35 0.28 0.24 0.28 0.37 0.47 0.56 0.67 0.72 0.69 0.63 0.64 0.64 0.62 0.63
1.37 1.40 1.41 1.43 1.47 1.48 1.51 1.52 1.43 1.23 1.05 0.85 0.72 0.62 0.65 0.64 0.75 0.66 0.71 0.89 0.75 0.60 0.47 0.39 0.31 0.25 0.23 0.23 0.24 0.26 0.30 0.35 0.39 0.43 0.46 0.49 0.54 0.58
1.02 1.05 1.12 1.19 1.26 1.30 1.40 1.45 1.45 1.35 1.06 0.95 0.84 0.73 0.74 0.73 0.76 0.71 0.76 0.79 0.73 0.66 0.53 0.43 0.38 0.32 0.27 0.24 0.22 0.22 0.22 0.26 0.29 0.32 0.36 0.39 0.39 0.39
0.77 0.83 0.89 0.96 1.04 1.12 1.17 1.23 1.32 1.36 1.24 1.08 0.94 0.82 0.73 0.72 0.86 0.91 0.90 0.84 0.83 0.90 0.79 0.63 0.53 0.44 0.35 0.29 0.25 0.22 0.22 0.23 0.25 0.27 0.30 0.35 0.40 0.39
0.52 0.56 0.65 0.72 0.83 0.91 0.96 1.01 1.11 1.19 1.26 1.14 1.07 0.98 0.83 0.76 0.86 0.88 0.95 1.11 1.04 1.10 1.18 0.98 0.75 0.60 0.49 0.41 0.35 0.30 0.27 0.24 0.22 0.24 0.28 0.32 0.36 0.39
0.49 0.49 0.53 0.54 0.59 0.70 0.83 0.98 1.08 1.21 1.27 1.19 1.14 1.12 1.01 0.92 0.96 1.02 1.10 1.18 1.25 1.12 1.13 1.08 0.99 0.86 0.70 0.59 0.53 0.46 0.42 0.39 0.37 0.34 0.32 0.31 0.31 0.32
0.46 0.51 0.52 0.48 0.47 0.51 0.52 0.68 0.85 1.05 1.19 1.24 1.24 1.25 1.18 1.08 1.00 1.05 1.17 1.30 1.41 1.42 1.30 1.16 1.10 0.98 0.87 0.77 0.69 0.62 0.58 0.54 0.52 0.46 0.42 0.41 0.38 0.36
0.51 0.54 0.52 0.46 0.50 0.48 0.47 0.49 0.57 0.68 0.85 0.97 1.06 1.11 1.15 1.21 1.28 1.29 1.32 1.38 1.46 1.47 1.34 1.35 1.26 1.12 0.97 0.82 0.80 0.80 0.76 0.70 0.62 0.55 0.49 0.44 0.42 0.43
0.47 0.61 0.67 0.60 0.59 0.62 0.63 0.56 0.49 0.46 0.58 0.75 0.87 0.91 0.98 1.08 1.28 1.35 1.38 1.38 1.29 1.35 1.22 1.28 1.23 1.11 1.01 0.94 0.93 0.87 0.85 0.77 0.70 0.63 0.58 0.54 0.49 0.48
0.42 0.54 0.79 0.83 0.73 0.69 0.73 0.82 0.73 0.57 0.54 0.57 0.70 0.78 0.82 0.97 1.29 1.49 1.47 1.28 1.20 1.26 1.19 1.19 1.15 1.04 0.98 0.94 0.96 0.86 0.83 0.76 0.70 0.66 0.61 0.59 0.58 0.57
0.36 0.48 0.64 0.79 0.73 0.69 0.69 0.76 0.80 0.70 0.62 0.61 0.55 0.60 0.70 0.88 1.14 1.37 1.45 1.39 1.25 1.22 1.09 1.00 1.04 1.05 1.07 1.01 0.96 0.92 0.83 0.80 0.78 0.74 0.70 0.66 0.65 0.71
0.22 0.38 0.54 0.54 0.50 0.55 0.67 0.78 0.87 0.72 0.61 0.68 0.67 0.68 0.69 0.86 1.18 1.37 1.43 1.38 1.26 1.22 1.14 1.04 1.02 1.04 1.21 1.19 1.03 0.97 0.92 0.90 0.86 0.83 0.80 0.78 0.82 0.82
0.15 0.29 0.38 0.35 0.34 0.41 0.53 0.67 0.80 0.66 0.68 0.82 0.85 0.83 0.88 0.93 1.05 1.17 1.33 1.40 1.28 1.12 1.08 1.16 1.19 1.09 1.04 1.06 1.08 1.03 0.95 0.90 0.87 0.84 0.84 0.83 0.85 0.82
0.16 0.22 0.26 0.22 0.22 0.26 0.33 0.45 0.57 0.64 0.73 0.85 0.93 0.89 0.84 0.90 0.95 0.98 1.07 1.16 1.13 1.06 0.99 0.93 0.97 0.91 0.83 0.76 0.78 0.88 0.92 0.90 0.86 0.83 0.82 0.91 0.89 0.88
0.13 0.17 0.18 0.19 0.22 0.24 0.27 0.35 0.49 0.68 0.85 0.85 0.79 0.76 0.79 0.84 0.83 0.93 1.01 1.06 1.06 1.04 0.94 0.79 0.77 0.78 0.74 0.68 0.63 0.67 0.77 0.84 0.81 0.77 0.75 0.77 0.78 0.82
0.13 0.13 0.14 0.19 0.22 0.23 0.29 0.40 0.55 0.75 0.83 0.75 0.70 0.61 0.63 0.78 0.82 0.81 0.85 0.88 0.93 0.97 0.88 0.82 0.78 0.73 0.70 0.66 0.63 0.60 0.59 0.64 0.71 0.75 0.74 0.72 0.71 0.73
0.10 0.17 0.22 0.28 0.34 0.40 0.50 0.57 0.58 0.62 0.68 0.62 0.65 0.60 0.57 0.64 0.68 0.67 0.68 0.66 0.67 0.67 0.69 0.70 0.73 0.70 0.65 0.64 0.65 0.61 0.60 0.55 0.55 0.64 0.72 0.73 0.70 0.71
0.13 0.22 0.30 0.38 0.43 0.51 0.55 0.56 0.56 0.57 0.60 0.57 0.56 0.56 0.51 0.51 0.52 0.54 0.56 0.58 0.62 0.60 0.54 0.50 0.52 0.58 0.60 0.65 0.62 0.57 0.58 0.60 0.62 0.64 0.63 0.61 0.59 0.61
0.11 0.23 0.43 0.47 0.43 0.48 0.51 0.50 0.43 0.36 0.36 0.38 0.37 0.36 0.35 0.36 0.40 0.41 0.42 0.47 0.50 0.48 0.50 0.50 0.48 0.49 0.50 0.48 0.46 0.43 0.50 0.54 0.55 0.59 0.60 0.57 0.53 0.53
0.07 0.14 0.27 0.31 0.33 0.37 0.35 0.32 0.25 0.19 0.19 0.19 0.19 0.20 0.21 0.24 0.26 0.30 0.30 0.29 0.35 0.37 0.39 0.42 0.41 0.41 0.42 0.43 0.40 0.36 0.35 0.40 0.42 0.44 0.47 0.51 0.54 0.64
0.07 0.12 0.15 0.17 0.18 0.16 0.15 0.14 0.12 0.12 0.11 0.10 0.12 0.14 0.15 0.16 0.16 0.17 0.21 0.24 0.24 0.25 0.28 0.31 0.32 0.35 0.36 0.39 0.39 0.33 0.30 0.35 0.37 0.35 0.39 0.46 0.47 0.46
0.05 0.06 0.07 0.07 0.06 0.05 0.05 0.06 0.07 0.09 0.08 0.07 0.07 0.09 0.11 0.12 0.11 0.11 0.12 0.13 0.16 0.19 0.22 0.25 0.28 0.29 0.29 0.33 0.33 0.30 0.29 0.31 0.35 0.43 0.41 0.39 0.35 0.33
0.04 0.03 0.03 0.03 0.03 0.03 0.04 0.04 0.05 0.08 0.09 0.08 0.08 0.08 0.10 0.10 0.10 0.10 0.09 0.09 0.11 0.14 0.17 0.20 0.23 0.24 0.25 0.25 0.26 0.27 0.28 0.29 0.31 0.34 0.35 0.37 0.33 0.30